GFSNW_500_spd_084.txt.gz
Wind_Speed
45 40 38 41 46 50 52 54 56 55 55 57 55 53 53 53 50 49 49 48 46 45 47 49 50 50 49 50 49 49 52 52 52 48 45 46 48 48 45 47 46 43 41 39
43 39 38 39 44 47 49 51 51 53 54 54 54 54 52 51 50 49 49 48 47 47 48 51 53 54 54 53 53 55 54 56 55 53 46 48 51 53 51 51 49 49 49 46
43 39 38 39 41 44 48 50 52 53 52 52 52 51 51 49 48 50 50 49 48 49 51 52 54 56 57 57 56 57 58 58 60 60 56 47 54 50 54 54 55 52 49 46
42 40 39 38 40 44 48 50 50 49 50 46 46 46 47 46 47 48 49 47 45 41 45 48 50 49 48 55 60 58 58 58 59 62 62 54 56 57 55 58 57 56 51 48
38 42 38 37 40 44 49 47 43 43 45 44 45 45 45 43 41 40 38 37 29 35 42 38 30 32 37 45 54 66 64 57 57 60 57 57 55 58 57 59 59 57 54 52
34 39 42 42 42 46 43 41 40 43 42 44 45 41 38 36 33 33 28 29 30 35 30 36 33 36 33 29 35 46 62 56 45 49 49 52 47 55 60 59 62 59 57 54
23 32 39 43 44 42 37 38 39 42 42 43 38 36 35 32 27 26 29 31 31 30 35 33 33 35 36 35 31 26 33 56 48 45 43 48 43 47 45 58 59 58 57 52
24 22 24 34 40 41 41 40 42 42 40 35 34 34 33 32 29 26 24 29 28 34 35 37 37 38 36 33 33 27 28 42 58 54 32 18 37 42 43 45 53 53 54 53
24 25 20 22 25 30 32 33 31 26 21 30 32 39 33 28 24 22 23 24 30 36 37 37 36 35 32 31 31 29 29 34 55 63 62 20 23 29 41 40 45 46 50 53
26 24 28 23 25 29 31 27 25 23 27 24 32 29 24 24 23 21 20 19 32 36 34 35 33 27 22 23 26 27 25 24 39 45 59 44 13 15 39 41 36 47 47 46
32 30 29 31 31 34 36 33 27 24 28 28 26 25 26 25 23 22 19 19 29 33 36 33 27 22 19 21 20 21 18 22 22 38 40 37 30 17 38 34 34 43 45 43
34 35 35 35 37 35 35 36 33 33 35 30 28 28 30 28 27 25 19 23 29 31 30 29 25 22 18 19 20 19 21 16 26 37 27 36 35 21 18 33 20 33 37 39
42 40 38 40 41 39 41 42 39 38 40 35 31 29 29 30 28 25 23 23 33 35 32 32 30 26 22 19 19 18 21 21 25 33 40 43 41 38 34 38 29 21 29 34
43 45 47 45 45 48 48 47 45 44 43 40 35 34 33 33 32 28 27 27 33 36 37 35 33 30 26 21 19 21 18 21 20 33 36 45 27 10 27 34 31 29 24 26
33 35 38 44 50 51 49 51 52 51 48 48 44 40 38 37 35 33 33 32 36 38 38 38 35 31 29 24 22 21 20 19 23 29 36 43 31 20 6 26 28 32 32 27
39 39 37 36 37 41 49 57 54 54 53 53 51 45 42 40 37 34 36 34 35 40 42 43 39 34 33 31 26 20 21 26 25 25 34 39 35 21 20 18 23 33 35 35
40 40 41 41 41 41 41 49 49 54 54 52 49 51 47 43 38 34 36 37 34 39 42 43 40 37 37 36 33 23 21 25 29 25 32 36 40 25 18 13 13 14 28 36
37 37 38 38 35 37 38 31 28 37 47 51 46 36 47 46 40 38 38 39 39 38 40 44 41 39 40 40 34 26 23 24 30 28 26 35 40 35 26 15 17 15 19 21
38 38 35 34 38 37 32 30 26 29 34 42 46 39 34 35 26 36 36 36 37 39 44 44 43 42 42 39 36 29 26 28 27 29 23 27 33 41 35 24 24 21 23 28
43 44 43 39 40 38 33 28 27 29 27 34 38 30 28 29 26 27 32 32 34 36 38 42 46 42 39 37 36 36 32 30 29 30 30 26 28 43 48 45 42 31 27 28
46 42 38 39 41 35 34 30 30 26 24 32 40 34 24 25 20 19 22 27 28 33 38 44 47 42 35 34 36 37 35 30 28 28 30 32 31 37 41 47 50 45 36 31
35 36 34 38 36 34 33 29 27 23 21 35 36 30 26 18 20 22 22 26 30 28 29 36 38 31 33 34 36 39 37 30 28 28 26 30 27 31 36 38 40 42 47 44
31 37 36 33 32 30 34 34 25 24 28 26 25 28 25 23 20 24 24 25 26 25 29 30 28 26 30 34 38 37 34 34 31 28 24 28 33 35 37 39 38 36 36 38
28 29 20 21 17 22 25 34 27 29 25 25 22 20 20 20 21 28 27 24 24 25 26 24 22 22 23 27 29 28 30 33 32 31 27 35 29 37 40 39 36 36 35 36
28 30 26 27 23 27 26 26 25 23 27 27 21 18 18 18 21 24 24 24 25 25 23 16 17 18 24 24 24 23 25 29 30 33 31 39 31 29 34 37 33 36 35 35
26 21 17 17 15 17 17 17 15 15 16 18 18 17 18 19 20 20 22 25 24 20 21 10 10 8 9 14 20 21 19 19 20 23 23 35 28 21 26 29 36 37 36 36
15 17 19 18 16 15 16 16 15 17 18 18 17 18 18 18 20 21 19 19 19 19 16 13 14 12 12 10 17 22 23 29 23 20 22 26 23 25 24 24 30 30 34 37

GFSNW_500_spd_087.txt.gz
Wind_Speed
49 48 47 44 43 46 46 43 42 40 47 51 53 54 55 54 52 49 46 46 45 45 44 42 40 39 38 38 38 39 40 42 41 39 36 36 42 44 45 48 45 45 42 41
46 44 43 42 44 45 43 38 37 40 45 49 49 52 51 51 50 52 51 48 46 45 44 44 42 42 42 41 41 42 42 42 42 42 39 42 40 43 48 50 50 46 46 46
42 42 41 44 43 43 41 37 38 40 42 44 46 46 45 46 45 46 50 49 47 47 46 46 45 43 44 44 44 44 45 44 46 45 45 42 47 48 49 50 53 51 49 47
41 43 44 44 43 42 42 40 35 35 39 39 39 42 43 42 43 44 46 47 46 46 45 45 45 46 45 45 45 47 48 48 50 52 52 51 47 48 49 51 51 54 51 49
42 44 44 41 41 43 42 37 32 34 34 36 39 40 41 41 41 43 41 42 43 45 46 45 46 46 44 46 48 50 51 53 56 57 56 55 58 53 50 54 55 58 57 54
29 29 32 34 39 43 39 32 32 35 34 35 39 39 37 37 40 40 41 39 43 43 41 46 45 45 46 45 44 43 47 46 48 55 53 55 58 55 54 53 55 58 59 56
22 20 23 30 34 41 38 33 34 35 32 36 37 35 37 37 36 37 36 36 38 35 41 44 44 43 41 39 35 33 32 27 26 32 34 46 51 51 54 52 50 55 58 57
23 21 19 21 28 36 39 37 35 32 30 32 32 34 35 35 35 36 32 30 31 31 35 36 35 33 32 34 34 34 30 29 24 26 29 31 37 37 37 39 42 47 51 52
21 21 22 22 20 25 33 35 35 34 31 28 28 31 30 29 32 32 31 27 28 32 33 31 33 35 34 32 30 31 29 28 28 30 32 32 30 38 27 30 32 38 45 46
20 21 21 21 22 20 19 23 29 32 29 25 27 26 25 29 32 34 31 27 27 33 31 32 34 34 31 27 24 23 23 25 27 29 32 32 35 39 30 24 27 31 37 42
22 20 19 20 19 15 13 11 16 15 20 26 21 25 33 38 40 30 27 23 25 32 38 36 35 29 25 20 16 17 20 23 20 21 21 16 19 36 41 31 18 34 35 39
25 23 20 21 26 23 21 22 22 19 13 18 16 25 35 35 27 21 21 21 26 30 33 33 28 24 22 20 17 17 16 18 17 19 22 12 19 33 46 44 18 31 38 35
29 26 23 22 24 26 28 26 25 26 13 19 33 32 25 22 18 19 20 21 22 24 27 26 25 24 21 19 13 15 12 15 19 21 17 30 34 27 25 37 30 22 26 23
32 30 28 25 25 26 25 25 21 18 17 23 24 19 16 17 19 22 22 21 20 20 22 26 25 24 23 19 17 14 12 12 14 21 21 25 31 28 25 25 30 23 32 22
34 34 33 31 30 30 31 30 28 27 26 25 24 24 22 20 22 23 24 23 22 21 25 28 27 27 25 24 21 13 15 15 16 13 18 22 22 24 21 23 20 22 28 23
28 29 31 32 31 34 37 38 37 34 32 31 29 26 25 22 22 22 23 24 26 26 27 29 31 31 29 24 20 17 17 17 18 14 19 16 15 26 27 19 15 16 24 22
28 28 29 30 31 35 42 44 33 36 35 34 31 32 29 28 26 24 23 25 28 31 30 33 33 32 33 29 25 19 20 21 22 19 16 18 14 26 31 29 21 23 25 22
31 31 31 30 31 32 34 29 27 30 32 36 38 37 33 32 30 27 26 25 27 29 31 32 32 33 35 32 26 21 21 24 25 25 23 19 20 20 36 33 23 21 20 21
34 32 30 31 37 35 29 24 23 24 31 35 39 37 29 34 33 31 30 25 26 29 30 32 33 34 35 31 28 27 25 25 28 27 27 27 19 17 34 42 32 24 20 18
33 35 35 31 31 30 28 25 26 25 26 31 34 31 30 25 19 20 18 19 26 29 28 33 38 36 34 33 31 30 29 27 27 28 28 32 29 23 22 41 43 32 24 22
37 41 37 30 29 26 27 28 27 24 22 21 23 26 31 19 12 15 16 21 24 26 29 33 38 38 34 31 30 29 29 29 29 31 30 34 32 28 23 26 36 39 35 30
35 36 35 33 35 34 38 30 19 18 19 16 15 26 23 18 22 20 15 16 20 24 28 31 35 32 29 31 33 34 35 35 34 33 32 31 31 25 21 22 28 32 38 35
37 33 33 33 36 35 26 21 21 18 15 18 29 34 30 22 25 26 27 28 26 23 20 17 13 16 20 23 28 34 36 36 36 35 35 32 29 27 22 24 22 21 29 36
29 27 30 28 29 28 24 22 19 11 16 22 32 28 27 20 17 18 18 24 20 24 20 17 17 21 24 26 27 29 33 35 36 36 31 29 29 28 25 25 22 26 24 26
24 22 20 19 18 20 22 20 16 17 19 22 24 25 23 19 17 17 21 28 25 21 20 20 19 21 25 25 25 30 32 31 29 26 26 27 29 30 25 25 21 26 29 37
16 22 22 21 19 21 23 22 21 18 21 21 17 13 13 14 14 16 19 21 21 20 20 21 21 24 22 18 24 25 24 22 23 24 25 27 28 24 20 27 29 31 33 37
17 11 17 19 18 17 20 19 16 16 18 19 17 15 15 13 15 15 17 17 15 15 18 22 25 23 19 15 18 17 16 18 18 18 15 13 18 20 22 25 27 20 28 32

GFSNW_500_spd_090.txt.gz
Wind_Speed
39 40 42 44 43 45 44 43 40 39 39 39 40 41 45 49 50 50 50 45 47 44 42 36 34 37 34 33 35 35 35 35 33 30 30 27 30 37 41 45 44 42 41 38
34 37 39 41 40 42 40 38 37 36 37 36 37 38 41 43 45 47 49 46 46 42 41 38 37 35 34 34 37 36 35 35 36 34 32 36 37 33 35 41 44 46 46 43
32 33 35 37 36 36 37 36 35 34 35 34 32 32 35 40 41 44 46 44 45 41 39 40 36 36 37 37 37 38 35 36 34 33 35 36 38 39 38 39 40 44 46 47
31 31 32 33 34 36 36 35 33 33 34 27 26 28 32 35 37 38 41 42 40 41 41 42 41 37 35 35 36 37 37 37 36 35 34 37 37 39 40 43 44 46 44 45
28 28 30 32 35 36 36 35 35 33 29 26 26 29 30 31 34 35 37 36 37 38 39 41 39 39 40 39 38 39 38 38 38 38 37 37 39 39 42 43 44 49 51 50
26 27 30 32 34 37 38 37 35 31 28 27 28 27 25 27 31 33 34 32 34 34 33 36 38 40 38 35 38 38 38 38 38 39 39 40 39 40 43 42 45 50 52 51
29 26 21 19 23 28 30 30 29 28 26 27 26 26 25 27 30 28 31 31 33 32 33 34 35 37 38 38 39 38 37 37 38 36 36 38 36 40 46 45 47 52 54 55
21 20 19 19 19 19 22 23 26 28 25 25 27 28 26 25 26 27 27 28 28 28 30 32 34 36 39 39 39 38 34 34 31 31 31 31 29 28 39 44 41 51 54 54
19 18 18 19 20 18 15 18 25 30 28 24 24 28 27 27 26 26 24 25 26 28 29 32 33 35 37 38 35 30 27 27 27 29 27 28 28 29 29 28 35 30 42 45
19 19 20 21 22 22 16 9 19 29 26 23 26 27 26 25 25 21 21 24 28 29 30 32 32 34 35 30 24 22 22 24 27 28 28 24 27 30 33 29 34 36 34 34
19 18 18 20 19 21 19 10 15 21 24 22 25 25 25 27 27 25 23 27 29 30 30 28 28 28 24 22 20 19 21 23 25 26 27 23 22 28 25 28 36 37 32 34
22 19 17 18 18 16 14 14 15 15 21 25 28 28 30 30 28 29 33 33 26 31 29 30 30 28 24 21 21 21 20 19 22 23 22 18 19 18 18 21 26 32 30 26
24 22 20 19 19 21 16 17 20 21 30 27 30 26 27 30 29 29 39 28 27 32 34 27 32 29 23 24 21 23 19 19 14 17 16 18 12 20 25 23 17 22 33 15
27 24 21 21 20 23 26 23 22 18 16 20 23 27 26 29 33 38 28 28 33 29 29 25 24 24 26 25 24 20 17 14 10 8 12 24 22 25 25 31 14 16 24 35
30 28 24 24 21 21 23 23 25 21 18 24 21 30 32 35 34 28 28 32 30 26 24 23 23 24 24 24 26 19 18 17 12 8 13 14 15 24 19 23 26 13 16 20
30 29 24 24 26 23 23 22 18 21 20 31 26 28 24 20 18 25 28 27 26 23 20 20 22 21 23 26 24 18 18 18 16 13 13 12 14 13 12 21 22 21 20 19
23 26 25 24 25 25 25 23 19 15 15 22 17 14 14 17 17 22 26 26 25 23 21 19 17 20 24 25 23 19 18 21 20 17 16 12 15 13 12 16 29 23 20 14
24 24 24 23 26 28 28 23 23 24 25 24 20 18 14 15 16 17 21 23 23 22 22 21 20 21 24 24 23 17 21 23 21 21 20 15 17 16 15 16 23 30 22 21
27 27 27 29 31 29 23 23 22 24 26 26 25 24 22 21 18 16 16 18 21 22 22 22 24 23 26 24 23 21 22 23 22 23 23 23 21 20 19 20 21 27 32 26
32 37 39 36 30 27 25 25 24 26 28 30 29 28 27 23 19 21 17 16 19 20 19 22 25 25 24 23 22 20 20 23 25 25 26 27 26 25 24 24 25 25 31 33
36 35 34 34 32 27 28 28 28 26 26 24 23 24 20 22 18 14 14 14 16 19 20 23 25 26 25 24 26 25 26 26 29 30 31 31 29 30 29 29 28 28 30 36
40 34 29 30 34 34 31 28 26 22 19 15 15 18 20 24 24 21 18 19 21 21 22 24 26 23 24 27 28 30 32 33 34 34 34 33 33 33 32 30 28 29 31 32
40 33 30 30 33 32 22 18 23 20 14 14 16 14 25 26 24 24 23 21 22 22 25 27 23 21 24 24 27 30 34 38 40 43 45 41 36 33 32 29 29 27 30 33
32 31 34 29 25 22 20 21 16 14 14 17 19 22 35 31 27 23 26 25 25 26 24 19 16 19 22 23 23 25 28 30 33 36 38 37 34 34 34 31 30 26 26 26
25 27 22 25 27 21 16 13 12 9 12 16 22 37 33 32 32 31 28 22 31 31 23 20 20 20 20 23 27 29 32 34 36 36 36 35 35 35 33 30 28 27 24 21
19 21 19 18 18 17 15 13 12 12 14 24 35 31 25 26 24 23 24 24 22 22 25 21 22 23 25 27 29 27 23 29 28 27 28 30 29 28 26 26 27 28 28 24
19 17 16 15 15 19 18 16 22 18 17 19 21 20 19 17 16 15 15 14 15 18 22 24 23 25 27 29 26 20 18 21 22 18 17 19 23 24 26 25 24 21 26 29

GFSNW_500_spd_093.txt.gz
Wind_Speed
16 21 26 29 32 34 34 36 36 37 38 40 39 37 38 40 41 40 41 44 45 44 46 39 38 38 41 38 33 34 31 29 29 26 26 26 28 34 36 39 33 26 28 29
16 20 25 27 29 31 33 33 33 33 36 36 36 36 36 38 36 37 38 43 47 47 45 44 41 41 38 38 37 35 31 34 29 28 29 28 29 31 31 38 39 35 27 24
18 20 23 25 28 29 31 32 31 31 33 33 33 33 33 33 33 34 40 44 49 45 45 47 46 44 39 38 40 34 32 32 30 25 27 36 35 29 34 33 32 34 36 35
21 22 23 24 27 28 30 31 29 30 32 33 31 29 26 26 27 29 35 40 42 41 43 43 43 41 40 36 39 33 33 35 31 28 31 32 31 33 36 35 35 36 33 35
24 23 23 24 26 29 30 30 29 30 31 30 28 26 23 18 21 26 25 33 35 37 39 40 38 34 37 37 39 34 31 30 30 30 28 30 32 32 34 36 39 41 42 40
23 23 23 24 27 28 29 29 30 31 24 28 26 20 21 22 21 23 28 20 31 33 35 39 40 37 38 37 34 31 30 31 29 28 28 32 31 27 30 32 34 37 39 39
24 23 23 25 28 29 29 26 28 30 27 25 24 22 18 20 21 21 23 27 25 25 31 32 32 36 35 35 34 33 30 31 31 30 30 29 28 28 28 29 31 32 33 39
24 24 27 30 24 17 12 15 21 20 22 23 26 26 23 19 22 23 18 19 25 24 26 28 30 30 30 29 33 33 33 32 30 29 30 27 27 29 28 28 26 31 34 37
27 29 24 22 19 15 12 11 17 22 23 27 26 27 27 21 18 20 22 23 23 21 20 25 28 26 27 28 29 30 31 32 31 29 26 24 23 28 24 25 27 27 33 37
20 19 20 18 17 15 14 11 11 19 25 25 25 25 26 27 22 16 18 18 18 21 23 26 26 25 16 16 23 23 24 24 24 22 24 24 21 22 23 25 27 30 33 37
19 18 17 18 19 19 19 14 14 11 16 23 24 26 26 26 27 23 18 17 21 23 24 23 20 24 24 27 20 15 16 19 20 20 24 22 21 20 22 24 27 32 36 36
18 18 19 19 16 16 16 15 13 14 16 21 26 25 27 27 29 29 28 21 24 22 21 17 16 13 21 22 19 19 19 19 18 19 21 23 20 20 23 24 22 27 30 37
20 20 19 18 16 18 12 13 20 21 18 24 25 23 24 28 32 25 27 27 22 22 24 21 20 19 16 21 22 24 24 22 23 23 21 20 24 22 20 20 21 25 22 24
22 23 21 19 19 21 16 19 15 15 20 23 22 28 23 27 31 30 28 35 35 29 29 24 28 22 21 19 23 27 26 26 23 19 14 19 21 23 27 25 26 33 27 23
24 25 23 21 21 25 22 22 19 23 19 16 21 23 24 26 27 29 30 38 33 29 28 30 27 23 20 22 23 26 27 24 22 14 16 12 10 15 18 19 26 28 31 21
26 25 23 22 25 26 28 29 31 28 19 21 20 20 15 28 29 29 31 41 31 33 32 27 25 24 22 20 26 26 28 25 19 18 17 9 10 6 8 15 19 18 31 20
22 26 25 22 27 26 25 27 23 24 19 25 26 21 16 27 29 29 36 36 31 31 29 24 23 24 27 27 28 27 26 23 22 21 18 13 15 12 15 13 11 16 25 20
21 21 26 25 25 28 24 22 25 25 25 27 24 14 17 25 31 33 37 33 31 29 26 23 19 20 23 25 24 26 27 27 23 23 20 18 21 19 16 16 12 11 16 23
23 23 26 30 29 28 25 22 23 24 26 31 22 19 16 13 22 26 27 27 26 23 20 17 18 19 21 22 20 20 26 24 24 25 24 23 22 23 21 20 19 18 16 18
32 32 32 32 28 26 24 22 23 24 25 30 18 18 18 19 17 18 23 22 22 23 19 20 19 17 17 18 12 15 20 25 26 27 29 28 26 26 25 24 25 24 23 22
37 37 32 30 28 27 26 27 28 29 29 29 26 28 24 19 13 14 17 18 19 19 19 20 20 16 19 14 17 19 20 22 25 27 28 29 29 30 30 30 28 30 27 28
36 32 30 30 31 30 28 29 28 25 25 22 20 25 23 23 17 13 17 19 18 17 18 19 20 18 15 19 21 22 24 26 29 32 33 35 36 36 36 37 36 34 32 31
36 36 32 30 32 30 25 23 23 19 13 14 15 18 21 25 24 23 23 22 20 20 22 22 19 14 19 21 24 27 29 31 34 36 38 40 41 42 42 41 42 39 37 35
31 32 34 34 31 25 20 18 17 16 17 18 18 18 19 22 27 24 23 23 24 25 25 25 20 20 23 25 27 30 32 35 36 37 39 42 43 42 43 45 47 46 41 36
26 21 25 29 26 19 16 16 18 19 18 18 18 19 15 28 29 28 27 28 28 24 23 19 20 20 22 23 26 27 30 30 31 33 36 38 38 38 38 35 35 39 38 36
20 26 24 17 18 18 18 15 15 15 15 18 21 20 23 37 32 30 28 25 23 19 19 24 27 27 26 25 26 29 31 33 32 34 34 33 30 31 31 33 34 35 35 35
21 19 14 15 20 16 14 11 11 9 8 12 19 22 31 29 26 21 22 22 23 25 25 27 29 32 31 29 32 33 34 33 31 31 33 31 27 24 26 25 27 29 29 30

GFSNW_500_spd_096.txt.gz
Wind_Speed
54 42 36 25 14 13 16 19 21 22 26 30 33 32 32 33 35 36 37 36 35 35 34 41 34 36 39 43 38 37 35 27 25 10 21 27 29 28 35 38 31 28 25 22
45 35 27 23 16 15 18 20 21 19 21 22 26 28 29 31 33 34 38 37 35 33 39 42 37 43 47 44 38 41 32 30 29 28 22 16 21 18 22 32 35 36 27 23
38 31 24 21 18 17 21 21 20 21 23 23 21 20 25 28 31 32 36 37 37 37 44 47 49 44 46 42 43 40 37 33 30 25 25 31 28 28 30 28 27 30 39 31
32 29 26 23 21 20 21 24 21 18 19 23 22 22 22 17 23 29 33 35 36 38 40 47 49 46 49 45 44 42 41 39 32 29 30 29 29 29 27 28 29 30 24 33
27 26 24 23 23 23 23 22 22 25 23 20 18 20 23 21 17 17 22 28 29 33 48 46 51 48 48 48 46 44 38 42 34 31 31 29 28 26 27 31 35 36 42 32
24 22 21 21 22 22 21 18 21 25 21 16 20 15 15 20 21 20 15 16 12 20 20 32 43 47 52 45 46 47 41 37 31 31 28 27 26 23 27 27 30 34 35 32
25 23 22 22 23 20 19 19 24 26 22 26 16 18 17 16 19 22 19 21 13 14 27 33 38 42 40 37 35 39 32 29 30 23 25 28 22 22 26 26 25 27 31 31
26 26 24 22 22 20 19 22 23 27 25 29 26 21 22 22 21 19 23 17 21 18 16 22 28 32 34 32 32 32 31 28 27 27 25 25 24 22 24 24 26 27 27 27
26 23 23 23 23 23 19 17 17 22 19 21 25 19 25 24 19 17 19 18 19 23 19 18 16 21 29 32 32 32 33 31 28 25 25 22 22 24 22 21 24 25 25 25
30 25 24 25 24 19 18 16 15 15 19 23 26 23 23 26 22 18 21 20 20 23 21 21 15 19 15 14 22 26 24 26 26 25 27 23 20 26 18 22 26 27 29 27
24 24 22 19 18 18 17 14 15 10 7 25 28 29 29 32 26 21 19 18 18 22 21 20 12 21 21 19 12 12 18 22 25 22 23 21 21 25 25 24 23 24 25 24
15 19 19 17 16 17 17 16 15 15 12 16 23 27 28 29 30 29 24 26 15 17 21 16 16 13 21 25 20 17 12 14 13 16 15 17 20 23 24 26 24 23 23 24
17 18 18 17 17 16 13 11 12 19 16 18 22 23 28 28 28 30 33 21 2 26 25 25 21 21 16 14 16 20 17 13 14 8 12 15 17 18 24 24 26 25 25 23
19 20 19 19 17 15 16 13 12 21 18 17 18 24 22 25 29 34 32 24 16 26 26 26 24 24 17 19 18 22 24 18 21 23 25 21 22 22 23 24 23 20 23 28
20 21 21 21 19 19 20 17 17 13 15 13 22 23 24 25 29 35 37 30 27 32 30 27 25 22 20 18 19 20 25 21 23 18 22 22 19 19 18 18 24 23 26 32
23 22 22 22 21 23 22 24 21 17 14 15 10 11 15 18 24 32 35 36 34 32 34 29 26 22 20 18 17 17 20 27 22 27 25 24 18 18 12 7 10 18 23 31
25 26 23 22 22 25 26 23 20 23 17 16 16 15 14 15 17 23 26 33 27 35 32 25 21 24 22 19 21 21 16 17 18 29 28 21 18 18 18 16 11 12 16 20
23 24 26 22 21 26 30 31 28 25 20 26 22 16 16 16 18 20 21 23 23 31 28 22 23 29 26 23 24 29 29 29 32 28 25 22 23 21 19 17 17 17 15 15
25 22 24 27 24 25 26 28 28 27 25 27 27 21 10 6 14 17 21 20 28 32 26 25 27 27 28 23 24 23 29 30 29 28 26 25 24 22 23 22 21 21 20 16
29 25 25 30 24 26 28 25 27 29 29 28 31 20 11 10 7 20 24 23 29 31 28 26 23 20 19 22 19 19 21 28 31 29 27 27 27 27 26 26 25 24 24 23
29 25 21 25 26 29 30 27 31 32 27 30 27 26 14 14 14 10 18 19 23 23 21 22 21 21 20 19 17 15 23 24 27 28 28 29 30 30 29 29 29 29 29 29
25 24 24 28 30 33 32 30 32 30 25 28 30 21 22 19 11 7 12 16 20 18 15 19 22 19 15 14 14 15 17 21 24 25 27 28 28 29 30 31 33 34 35 34
30 30 27 27 29 29 28 28 26 22 12 16 20 22 23 21 22 18 19 21 20 16 15 19 17 14 16 18 18 19 20 23 26 27 29 30 32 33 35 37 38 39 41 42
32 31 29 27 25 22 19 11 13 13 14 14 17 21 23 26 26 28 22 23 21 20 19 18 11 14 18 21 23 24 26 27 28 29 31 33 34 36 38 41 44 45 47 49
30 29 28 26 24 22 17 12 16 19 20 19 19 20 21 25 27 27 24 22 21 23 21 14 15 17 20 22 25 27 28 31 32 33 34 35 35 36 38 39 41 43 45 45
25 26 25 24 19 18 12 14 17 20 18 17 17 16 16 17 22 24 29 30 27 22 18 19 22 25 26 27 29 30 32 34 36 37 37 34 34 37 39 37 36 38 40 41
14 15 17 14 17 14 17 17 15 14 15 18 20 20 21 20 24 29 32 29 21 22 22 23 25 27 29 30 32 36 36 34 34 35 34 35 36 35 35 33 32 30 34 36

GFSNW_500_spd_099.txt.gz
Wind_Speed
65 70 71 69 48 36 31 18 8 6 7 11 18 19 21 25 27 32 35 35 44 42 37 34 38 26 32 37 40 40 32 27 30 27 29 27 27 35 34 29 29 29 26 30
68 72 64 39 30 27 22 17 10 10 9 16 13 17 18 21 23 26 33 38 39 43 43 39 38 31 33 40 24 35 33 27 33 30 24 27 28 24 25 44 39 31 27 29
68 59 33 26 24 23 18 15 12 12 14 10 13 12 8 14 19 22 28 35 35 36 34 41 44 32 27 44 36 24 36 34 34 36 29 20 31 33 29 30 34 35 37 25
50 32 25 23 23 23 20 16 13 13 14 13 15 16 12 2 12 15 23 27 28 29 32 38 43 43 43 43 45 33 30 32 39 33 34 29 23 34 31 32 27 27 30 37
33 27 23 22 22 24 22 18 17 18 19 14 12 14 13 17 13 13 11 20 25 27 28 31 39 47 51 51 48 47 42 37 39 35 27 29 26 25 29 26 19 25 23 23
29 24 22 21 20 20 18 14 17 20 19 23 21 17 10 10 21 21 16 11 16 22 27 31 35 39 48 49 54 44 41 39 37 37 31 27 32 25 25 28 31 31 28 27
31 27 23 21 21 19 16 15 17 18 16 20 22 22 19 16 15 14 17 16 14 17 15 13 16 23 36 41 52 49 43 41 34 30 40 33 21 29 32 31 33 34 33 29
30 27 24 23 23 21 17 17 17 19 18 21 23 22 23 23 18 18 19 17 13 17 12 13 20 18 24 32 42 40 37 34 36 37 33 24 28 31 28 27 28 28 27 23
27 26 25 22 21 20 18 19 21 25 21 22 29 29 24 23 22 17 15 23 18 23 10 11 13 15 15 21 25 29 29 27 30 29 30 26 26 28 26 26 26 26 24 24
27 28 24 20 21 20 20 22 23 19 15 21 28 31 28 25 23 19 18 19 17 15 16 9 15 15 11 13 17 22 22 25 25 26 27 28 24 23 24 25 25 25 25 24
21 22 26 26 23 21 21 21 20 16 11 21 26 28 32 26 27 24 20 20 20 17 15 17 16 20 18 14 9 14 20 22 24 34 31 25 28 25 23 22 25 28 29 28
18 15 18 17 18 17 19 20 18 16 11 16 21 25 28 25 29 21 21 21 20 18 14 17 16 22 18 10 6 16 16 12 12 19 18 18 27 30 27 27 30 30 28 26
9 11 15 16 16 17 19 21 22 16 11 9 4 12 27 26 29 27 27 24 19 20 12 20 22 22 17 12 11 8 13 8 15 15 13 17 20 23 24 24 26 26 23 20
13 14 15 15 15 17 18 17 14 10 7 9 8 16 17 23 25 30 32 30 31 19 19 25 24 23 18 15 14 17 15 12 10 18 13 19 21 21 19 23 25 25 19 27
19 18 18 17 16 16 16 19 16 11 9 10 17 18 20 23 26 30 33 27 17 16 16 24 25 21 23 15 16 17 25 18 12 22 11 12 22 21 21 24 21 17 23 27
22 20 19 19 18 18 19 19 17 10 11 13 10 10 11 20 24 28 30 31 25 20 22 24 25 25 23 18 15 18 20 21 12 23 21 8 20 29 22 17 15 15 18 20
23 23 22 21 20 20 20 17 16 14 13 11 13 13 10 15 19 27 29 33 26 22 24 26 25 22 21 21 17 21 20 31 34 18 23 16 21 22 26 22 16 16 15 13
20 22 23 21 21 21 22 23 20 18 15 15 15 16 12 5 7 18 27 33 34 31 25 26 23 23 22 20 19 25 23 26 28 28 38 33 25 28 26 24 22 18 14 15
22 21 22 25 23 19 24 28 25 23 17 15 16 14 9 8 7 8 14 21 24 27 29 25 28 23 20 21 23 24 31 26 25 28 31 27 27 29 27 27 24 22 19 17
24 25 22 27 22 23 28 31 29 28 22 17 17 14 12 9 7 10 13 14 15 16 15 23 24 20 20 20 21 24 29 33 32 34 31 31 31 29 29 28 26 24 23 22
26 24 21 22 24 27 31 32 34 32 26 18 19 19 12 8 4 1 12 14 12 13 14 18 19 19 18 17 19 22 24 28 31 34 36 33 32 31 29 30 30 29 29 27
23 20 17 23 26 32 32 31 31 32 24 22 27 27 16 13 10 6 6 11 9 8 4 9 14 13 12 11 12 18 22 27 31 31 29 30 30 30 30 31 31 30 29 30
25 23 21 24 30 35 34 31 26 23 17 19 27 26 25 19 15 10 15 15 15 11 8 14 11 12 14 16 17 17 17 20 23 25 27 28 29 30 30 30 30 31 32 35
26 24 22 24 27 34 27 14 12 16 16 16 23 31 23 23 23 22 21 20 18 18 21 18 15 13 14 17 17 18 18 19 21 23 25 26 27 29 30 31 33 36 38 40
25 22 20 16 17 17 14 13 16 19 19 17 18 21 25 30 28 27 26 23 21 21 21 19 16 15 18 19 20 21 23 25 26 28 29 30 32 34 35 37 38 39 40 39
19 19 18 14 14 14 12 10 13 17 17 17 17 16 16 18 22 25 29 29 26 19 21 19 20 20 20 22 25 27 28 30 32 33 35 35 35 35 35 34 34 36 37 36
18 16 15 13 11 12 13 12 11 13 15 13 14 15 13 19 21 19 21 20 20 15 17 21 20 21 22 25 28 30 31 32 33 35 38 42 40 37 35 35 36 37 37 35

GFSNW_500_spd_102.txt.gz
Wind_Speed
51 51 53 56 61 61 54 20 20 19 11 6 8 7 5 13 13 20 25 25 32 33 26 30 31 32 26 26 30 30 37 33 33 27 27 27 34 37 38 42 39 34 30 25
48 50 51 56 56 48 26 14 17 14 12 10 10 8 9 10 11 17 22 29 29 35 30 37 41 42 36 34 37 23 41 34 32 26 30 31 42 36 38 42 37 36 31 23
46 46 51 52 45 35 17 14 15 13 15 18 12 10 8 7 8 15 21 26 27 32 39 24 30 41 45 35 41 39 38 37 39 36 33 35 35 42 41 42 38 34 34 30
43 46 49 43 38 31 20 18 17 15 16 15 14 12 9 12 5 11 14 22 25 29 35 41 36 38 38 36 32 36 24 39 35 32 34 35 33 37 43 45 43 38 34 28
40 46 41 36 33 26 19 18 19 20 17 17 10 14 13 14 11 10 7 12 19 23 28 38 48 46 42 39 38 29 31 24 32 31 32 32 29 36 34 38 30 26 30 38
41 43 38 34 31 26 19 17 19 20 18 25 22 17 14 14 18 16 14 10 13 19 22 26 30 33 34 40 46 43 36 21 25 28 32 30 30 25 24 28 30 28 27 28
41 39 35 31 30 25 19 17 17 17 18 24 30 26 22 16 13 19 21 18 12 14 17 22 24 26 30 36 35 38 41 41 27 28 29 31 31 29 25 27 27 31 27 24
39 37 31 28 27 24 22 20 18 18 15 20 20 26 28 23 19 15 17 19 14 12 10 16 19 23 29 30 36 35 37 37 36 33 34 32 28 30 30 29 30 28 25 24
37 33 33 31 27 23 21 22 20 18 16 17 21 22 24 25 27 24 18 19 15 13 15 11 10 12 13 19 30 37 37 36 42 44 40 35 28 36 29 27 28 27 27 30
33 31 28 28 27 22 19 20 20 18 18 20 22 26 27 26 26 25 19 18 16 10 10 13 8 11 11 6 4 12 27 33 35 33 32 31 30 31 24 30 30 29 27 25
31 26 24 23 24 23 14 20 21 19 14 18 21 22 28 30 28 24 19 18 16 13 10 9 10 15 13 11 12 11 14 19 25 26 27 27 31 25 28 28 29 27 27 28
26 23 21 19 21 23 21 19 16 14 12 14 15 15 23 29 29 23 25 20 16 15 13 12 15 15 15 10 7 10 21 20 19 17 14 22 27 24 26 25 25 25 23 22
22 17 17 15 15 15 16 19 17 12 10 11 4 10 24 23 30 28 28 23 20 19 12 12 11 14 15 10 6 14 13 13 21 23 23 30 28 25 23 27 27 25 23 26
16 11 10 13 14 14 16 17 15 13 13 10 7 10 12 22 27 24 28 25 22 17 12 15 19 21 17 13 3 10 8 15 14 15 14 19 22 17 25 30 25 22 23 22
20 17 16 16 14 15 16 15 14 13 10 9 6 9 7 11 17 20 27 25 25 26 20 15 17 21 21 12 9 11 10 7 7 13 19 20 19 17 20 22 25 19 18 22
24 23 21 19 17 17 18 16 13 11 10 14 12 13 12 13 18 20 23 26 28 20 16 18 14 18 20 13 11 4 14 13 15 5 8 13 22 22 23 22 15 10 17 21
25 23 21 20 20 18 17 13 17 14 11 6 10 10 12 12 15 17 19 22 24 22 18 17 16 16 18 14 12 14 15 20 18 5 9 13 14 18 20 23 24 19 18 14
23 21 22 21 21 20 17 13 17 14 11 8 10 11 10 7 9 12 15 20 27 23 17 12 13 18 20 17 17 17 20 22 22 13 21 20 25 19 20 21 22 25 22 19
19 17 19 22 23 21 17 17 19 16 12 10 16 14 10 9 3 5 12 17 26 23 18 14 16 17 22 18 21 20 22 25 24 26 21 29 27 32 23 23 25 26 23 21
23 25 20 19 15 19 21 23 22 18 16 21 18 13 10 9 11 8 7 16 20 25 23 25 23 21 23 21 25 25 26 31 29 29 30 32 33 33 35 31 29 29 27 25
25 20 17 13 20 22 24 26 29 24 21 19 17 13 13 11 10 7 8 11 11 11 17 20 20 20 18 15 19 28 30 33 37 39 35 32 34 33 30 31 33 31 29 29
18 16 16 17 21 26 29 31 30 28 22 17 14 16 13 13 10 3 1 10 6 6 11 13 12 11 13 13 15 20 22 26 31 36 37 37 37 39 40 38 34 32 32 33
24 22 19 18 25 30 30 32 27 26 22 17 18 19 18 14 12 10 6 10 8 8 11 12 6 5 8 12 16 18 20 21 22 26 32 36 36 35 32 32 34 34 34 32
25 23 21 20 24 28 27 22 14 15 18 19 22 24 24 18 17 13 13 16 15 13 13 7 9 10 11 13 15 16 19 19 19 20 22 24 25 26 27 28 30 30 31 33
24 20 19 16 18 21 19 15 17 18 18 17 18 19 23 24 24 26 21 18 19 16 14 20 16 15 18 18 19 18 18 18 18 20 22 23 24 26 29 31 32 34 35 36
20 15 13 11 13 18 19 18 16 19 18 16 15 17 22 27 27 28 29 27 25 23 22 21 21 24 24 22 22 23 23 24 26 28 29 31 32 34 36 37 39 40 40 39
17 13 11 11 12 12 12 12 10 12 15 14 14 15 19 22 23 22 23 22 21 23 25 23 23 22 22 24 25 25 25 27 29 30 31 32 33 35 37 40 42 43 43 42

GFSNW_500_spd_105.txt.gz
Wind_Speed
46 47 47 49 49 49 49 51 51 39 24 21 15 11 11 12 11 20 16 20 14 17 30 12 15 6 17 44 41 37 44 45 45 42 39 41 41 40 42 44 42 40 40 36
45 45 46 46 46 46 48 47 41 30 22 19 17 18 14 11 8 11 13 16 18 20 27 25 8 11 10 16 10 20 35 39 38 36 34 37 38 40 39 41 38 40 39 38
43 42 43 43 43 44 45 39 34 29 23 19 17 17 14 12 8 9 13 16 27 23 19 26 26 8 20 21 19 13 22 26 37 35 33 29 30 35 36 39 43 44 45 42
42 42 40 41 41 42 38 34 30 27 27 22 19 17 17 13 12 10 13 16 17 26 26 27 29 27 7 7 29 22 16 28 22 36 37 34 27 29 36 39 42 43 43 38
40 37 37 37 39 40 33 31 29 28 26 23 21 21 20 16 15 13 14 13 15 22 24 25 30 32 28 16 20 28 28 23 22 37 34 36 33 21 34 40 40 36 37 38
37 35 35 35 38 37 29 30 28 24 22 23 23 23 18 16 18 17 16 10 11 14 20 22 28 35 35 25 27 29 36 25 16 8 23 13 21 37 25 36 39 41 34 27
35 34 33 35 37 33 29 28 27 22 19 20 24 28 27 17 18 17 21 16 11 12 16 19 25 33 35 34 33 33 35 35 19 13 18 19 13 22 20 29 32 19 24 34
34 33 31 34 34 31 29 29 26 24 22 21 22 25 30 25 21 19 18 22 21 18 14 15 20 21 22 26 27 30 31 27 35 28 14 16 12 18 22 21 21 24 18 26
32 30 31 33 32 30 28 28 26 23 23 21 21 19 21 26 29 25 21 19 21 18 9 9 13 19 23 25 27 30 28 27 29 32 29 21 19 18 22 18 22 18 18 18
30 30 31 30 30 29 25 26 24 21 19 19 20 20 21 21 23 29 28 24 18 15 10 8 11 11 16 17 16 18 25 28 32 27 33 30 27 25 23 23 25 20 19 19
29 30 29 28 28 28 23 25 20 18 16 18 21 23 21 24 25 25 25 22 18 15 9 6 10 11 14 16 13 4 13 21 28 27 29 28 30 29 28 28 30 24 22 21
30 30 27 26 27 26 19 20 19 15 11 15 19 18 19 23 28 26 25 21 18 18 15 10 9 10 12 16 10 5 13 19 20 26 21 20 25 27 27 25 27 24 25 23
31 27 24 23 24 17 13 16 16 12 13 18 15 15 14 17 25 26 22 22 21 20 17 15 10 10 7 13 12 6 6 14 16 21 23 23 28 25 24 22 27 22 19 18
30 23 21 21 16 12 12 14 13 13 15 14 16 7 4 12 20 21 23 26 23 22 16 15 14 14 12 17 8 14 5 9 17 21 23 23 24 19 23 24 19 25 21 21
26 22 20 13 13 14 15 13 11 13 14 15 12 7 4 2 10 18 23 28 26 23 22 16 14 15 17 19 8 6 11 15 16 17 15 15 18 23 23 24 27 25 23 23
24 23 24 20 18 18 16 13 10 9 13 12 8 7 8 6 5 12 19 28 26 25 23 17 12 13 16 21 10 4 9 18 14 5 10 14 17 20 21 19 19 21 24 24
25 24 26 23 22 17 10 10 11 11 11 10 13 13 10 8 7 9 11 20 23 27 28 13 13 16 14 17 11 5 10 15 13 17 13 15 8 18 25 25 20 19 17 14
24 24 24 23 22 20 14 13 14 14 12 11 11 8 7 7 5 6 9 15 23 28 22 15 14 16 14 15 11 9 8 11 18 8 7 18 20 30 30 28 27 26 24 23
21 21 23 25 24 16 18 17 16 17 16 6 12 12 10 11 7 1 5 13 22 27 20 16 14 11 11 12 12 13 13 14 15 17 13 9 13 14 21 20 20 18 14 18
25 25 24 19 14 18 19 20 18 20 13 13 16 13 9 8 5 3 3 14 23 26 19 18 15 13 12 14 15 16 19 19 21 23 24 24 19 19 23 21 22 25 22 21
29 24 16 15 17 18 22 23 19 15 19 20 15 11 10 6 10 7 6 12 17 18 20 23 21 18 14 17 19 19 23 23 23 26 28 28 29 31 30 30 28 24 25 28
20 16 16 15 18 23 24 24 25 24 24 21 16 13 10 10 6 9 4 7 9 7 17 22 18 14 15 19 19 23 28 29 29 29 29 32 36 36 39 37 33 32 30 31
23 22 21 18 20 26 26 23 23 24 21 20 17 15 12 11 10 7 0 11 8 5 9 7 11 14 18 20 21 25 29 31 32 32 34 34 36 39 40 41 40 39 39 39
26 24 23 22 22 19 19 16 13 22 23 25 19 16 17 16 13 10 8 11 11 12 9 12 7 13 12 13 15 18 20 22 23 23 23 25 27 28 31 34 35 35 35 34
27 25 22 19 13 13 14 12 16 18 23 21 21 21 23 24 18 19 17 15 16 13 12 14 14 13 16 15 15 16 17 18 18 19 20 20 21 23 24 26 27 28 29 29
24 17 11 11 11 13 14 14 14 16 15 14 15 17 19 24 26 26 26 25 23 22 20 19 19 20 23 24 23 22 22 22 23 23 24 25 26 27 28 30 31 32 33 34
16 11 10 9 10 13 16 16 14 16 15 15 15 13 13 15 19 19 22 23 24 25 25 25 24 25 27 28 27 27 28 27 27 26 27 28 30 30 31 33 34 35 35 37

GFSNW_500_spd_111.txt.gz
Wind_Speed
48 48 44 39 37 38 38 39 39 40 42 43 41 42 41 41 37 34 30 26 24 22 24 17 17 14 10 9 5 16 6 14 20 22 20 19 33 37 34 45 45 44 42 41
51 48 44 39 38 38 38 38 38 39 41 40 39 39 39 36 32 30 27 25 23 20 18 25 21 17 16 14 11 8 13 21 18 22 27 24 19 27 38 37 38 39 40 39
49 47 45 41 37 35 37 37 38 39 39 37 37 37 36 34 31 27 24 21 21 22 16 18 22 21 15 5 10 13 12 2 21 22 29 29 29 17 22 33 38 37 38 37
51 49 43 38 35 34 35 36 37 38 36 35 36 34 33 30 27 25 22 21 21 24 18 11 19 22 21 16 9 9 12 11 14 27 27 29 27 25 24 20 24 31 30 34
43 38 38 37 36 32 35 35 34 35 34 34 34 33 30 27 23 22 24 21 21 23 21 15 13 19 23 19 15 8 8 8 12 12 29 30 27 23 19 24 27 27 28 29
39 36 36 34 34 32 33 35 34 33 33 34 34 33 30 24 21 23 21 21 21 22 21 14 12 13 10 16 17 17 13 7 7 9 5 22 23 25 23 21 25 26 26 27
39 37 35 35 33 33 33 32 31 30 31 33 32 32 31 24 23 19 21 19 15 18 20 18 11 12 8 8 13 11 11 10 9 11 5 6 18 22 24 27 28 26 23 23
39 37 35 34 33 31 30 30 30 30 31 33 31 31 28 23 22 19 16 21 16 14 17 22 21 18 11 4 5 5 9 11 10 9 5 6 15 19 17 18 11 19 21 16
41 38 36 34 32 29 28 29 29 29 32 29 30 30 28 22 19 19 17 17 18 16 12 16 16 17 9 5 4 4 2 4 9 15 8 6 9 21 18 17 16 8 7 19
42 39 36 34 32 29 28 29 29 30 31 29 30 29 24 20 19 16 16 13 15 20 16 12 5 8 6 6 5 5 4 5 8 16 13 8 9 9 11 15 15 12 10 13
41 38 35 33 31 29 28 29 28 30 28 29 26 20 22 19 17 16 18 19 18 14 15 13 8 4 4 6 5 7 8 7 8 12 15 11 17 10 6 9 11 14 15 6
42 38 35 32 31 29 28 29 29 28 25 20 16 18 17 14 14 16 20 19 18 14 12 11 12 8 8 10 12 12 7 5 9 13 17 14 19 17 8 8 8 6 9 10
40 38 36 33 32 30 29 29 26 24 17 17 17 17 14 16 18 20 18 20 18 14 13 13 17 10 5 7 12 11 14 10 8 14 22 21 20 22 15 14 11 10 7 9
43 39 37 34 33 30 29 26 24 20 16 16 16 15 14 16 17 19 14 15 17 17 15 17 18 14 8 3 6 4 6 4 3 10 19 18 24 20 17 18 13 12 14 13
45 42 38 35 32 30 27 24 21 18 16 13 12 12 12 14 14 9 10 14 18 19 16 19 18 16 10 6 0 1 9 6 3 5 8 10 21 22 22 23 22 20 14 17
43 41 38 35 33 30 22 19 17 17 12 11 10 8 5 7 8 7 7 13 16 17 16 19 17 14 12 4 4 6 6 14 22 1 10 14 19 24 23 21 18 23 13 22
40 37 36 34 32 22 18 18 17 12 11 9 6 3 3 4 9 8 6 11 15 17 17 18 18 16 9 7 7 10 7 5 12 7 8 14 18 21 26 27 26 27 25 21
36 33 33 31 24 23 19 19 17 16 14 9 4 3 1 0 1 2 3 5 9 13 17 18 19 14 6 9 7 11 10 3 6 13 11 14 19 25 24 24 28 29 25 18
33 30 27 24 22 20 22 19 18 15 9 5 10 8 4 4 3 2 1 6 9 11 14 17 17 13 7 12 7 5 8 7 2 6 9 10 9 17 21 30 30 26 24 19
31 28 25 20 20 24 22 21 19 16 6 7 6 5 7 11 6 2 1 4 4 8 13 14 12 10 13 12 9 7 8 12 10 3 1 2 3 6 18 20 22 29 26 26
30 26 22 23 25 23 23 22 19 12 3 9 11 11 11 7 8 0 3 2 5 5 13 13 12 9 12 12 9 8 10 10 13 11 5 5 6 5 5 7 10 8 11 12
26 25 25 25 24 24 23 22 20 13 7 11 12 15 11 8 5 8 7 5 2 6 10 13 14 12 12 12 13 12 12 12 12 12 12 11 12 13 13 15 14 14 14 17
27 24 23 28 27 24 22 17 12 10 8 16 16 13 9 6 4 3 3 4 2 2 2 5 5 7 10 14 16 14 14 15 15 13 14 16 19 19 19 19 20 20 20 21
26 24 24 25 18 11 5 7 8 12 15 19 18 14 11 8 5 7 4 2 7 7 6 4 5 6 8 8 9 10 12 14 16 16 16 16 17 18 18 19 20 21 22 24
25 21 16 13 11 8 4 6 11 15 20 20 20 17 13 10 7 7 10 8 7 8 9 9 10 10 9 11 11 13 13 13 13 13 14 15 16 17 17 18 19 21 23 24
18 16 13 9 7 5 6 7 14 17 23 24 20 17 14 14 14 13 13 13 14 16 17 16 17 17 16 16 15 17 20 21 20 19 19 20 20 20 20 21 22 23 24 26
14 11 8 8 8 8 10 11 15 18 26 23 21 19 13 17 15 13 16 17 20 23 23 24 20 18 21 19 18 20 23 25 28 29 31 31 29 29 29 29 29 28 30 30

GFSNW_500_spd_114.txt.gz
Wind_Speed
47 48 48 45 44 44 43 41 40 37 35 33 33 35 36 37 39 40 41 36 29 26 27 22 16 16 26 28 15 3 8 2 19 15 15 18 18 23 27 35 40 44 30 29
45 47 44 44 45 45 41 41 41 36 33 32 32 34 34 36 37 38 38 31 26 22 23 23 12 19 20 22 14 13 10 3 9 9 18 19 22 28 27 29 28 33 39 33
43 44 43 42 41 38 40 41 39 33 31 30 31 33 33 35 36 35 32 26 23 20 18 20 15 20 18 23 14 9 9 7 6 12 11 23 19 13 21 35 32 33 34 32
39 39 39 39 39 38 41 39 35 30 27 29 30 31 33 34 34 31 28 24 22 21 17 14 16 15 15 22 23 12 12 8 7 17 20 20 21 12 14 19 26 30 31 31
39 40 40 38 39 41 40 37 28 25 27 29 30 30 31 33 31 30 26 24 21 22 19 13 8 10 21 15 18 16 14 9 11 5 26 22 21 20 11 7 17 21 27 30
39 39 37 37 36 33 30 25 23 25 27 28 28 29 31 32 29 28 26 24 19 20 20 14 11 7 6 13 10 9 8 12 12 14 10 17 22 21 15 10 14 14 19 24
41 42 38 35 29 23 22 22 25 27 27 27 28 29 31 32 30 26 26 24 18 17 18 15 12 8 6 6 5 9 5 6 10 12 11 13 17 20 18 16 14 16 19 21
35 34 31 28 24 23 25 26 26 25 25 26 28 29 30 32 30 26 23 24 19 16 15 12 12 12 7 4 6 5 2 2 4 8 9 7 16 18 16 18 19 19 21 19
37 34 32 30 28 26 26 25 25 24 25 26 29 29 31 30 29 23 22 20 17 15 15 10 7 8 10 5 8 8 8 4 4 4 4 2 9 21 16 14 13 12 18 20
42 39 37 34 31 29 27 26 25 24 26 27 28 29 29 30 21 21 20 17 14 11 13 12 6 4 6 8 7 10 11 6 4 3 4 7 4 28 24 19 14 10 10 17
45 42 39 36 34 30 27 27 25 25 27 28 27 28 28 18 18 16 14 16 16 14 11 14 11 7 5 6 8 11 8 5 8 9 7 9 7 9 20 21 18 10 15 14
48 44 39 35 32 29 27 27 25 25 27 27 25 26 17 13 13 13 16 15 16 17 14 15 14 12 9 8 11 11 11 6 7 10 13 11 11 12 13 24 15 10 14 10
44 42 39 35 33 29 29 29 27 27 27 24 23 22 15 18 17 18 19 20 21 18 15 16 19 16 12 11 10 7 13 14 15 13 18 17 16 16 14 14 9 10 7 3
42 38 35 33 32 32 31 31 29 28 25 22 24 19 18 19 18 18 19 20 13 17 18 18 20 19 13 12 11 7 7 3 13 14 20 25 25 24 22 19 12 7 8 7
44 41 38 36 34 34 33 31 30 24 21 22 16 17 16 17 16 16 14 10 14 18 19 17 20 21 17 9 9 8 10 4 14 9 8 18 21 30 31 27 22 15 13 11
46 45 44 41 38 35 33 29 26 22 20 18 16 16 15 15 14 11 8 9 13 16 18 17 18 22 19 8 6 3 3 5 15 4 15 15 5 22 30 32 27 17 19 18
40 45 42 42 38 34 29 24 25 21 18 17 16 14 13 12 9 9 8 8 13 15 17 17 19 21 18 11 7 5 5 6 8 8 12 17 13 21 29 32 33 18 24 23
37 37 38 37 35 33 25 23 21 21 20 18 15 12 10 10 8 5 4 5 8 12 15 17 18 19 17 11 10 8 9 5 6 9 10 14 18 18 29 33 37 32 27 28
33 34 35 34 29 25 26 24 22 21 16 14 12 7 10 9 7 6 4 2 2 4 9 15 16 16 13 14 9 10 7 7 0 10 13 14 18 21 25 28 31 28 29 27
33 34 32 25 26 28 25 23 22 16 12 10 6 7 8 9 11 6 4 5 4 3 6 9 12 13 15 14 15 11 8 5 7 4 6 12 16 16 18 18 20 21 25 28
31 30 31 30 28 25 24 24 22 15 14 13 8 8 14 13 10 5 3 4 3 5 6 11 13 14 15 17 17 13 10 9 7 4 6 1 3 6 13 16 15 12 14 22
35 31 30 28 26 25 26 27 20 16 16 16 12 16 15 13 9 5 5 7 5 5 5 7 9 10 9 12 16 15 11 12 11 10 7 6 4 3 4 3 5 6 6 8
33 32 32 28 28 28 27 21 15 16 18 15 16 17 14 10 6 5 3 1 6 4 3 5 6 7 10 13 15 16 16 15 15 15 15 14 11 12 12 12 13 14 14 16
35 32 32 29 25 18 14 14 14 18 16 16 18 17 14 8 6 9 5 6 7 8 7 10 10 8 8 8 8 12 12 14 15 17 17 17 16 16 16 16 16 16 17 17
32 27 23 19 15 14 11 13 16 14 17 18 19 18 15 10 6 7 9 7 6 5 6 6 6 10 10 9 11 10 11 13 13 15 16 17 18 18 18 18 18 18 19 19
26 23 20 19 17 14 11 9 11 18 22 23 21 19 15 12 10 8 9 9 11 14 15 15 16 15 14 16 16 15 16 17 18 19 20 20 20 20 20 21 22 23 23 23
25 21 18 15 13 10 8 8 9 13 21 22 22 18 13 13 13 12 12 13 15 17 19 20 20 20 18 16 17 18 19 21 23 24 27 28 29 30 30 30 30 29 28 29

GFSNW_500_spd_117.txt.gz
Wind_Speed
47 48 46 44 43 41 43 43 39 37 37 36 35 34 34 33 31 31 34 36 37 40 42 40 28 21 18 24 26 23 11 12 10 2 1 9 16 17 31 36 33 37 31 24
48 48 42 39 39 42 42 39 37 37 35 33 33 33 32 30 30 31 35 35 36 40 40 35 25 20 18 24 28 18 9 5 14 8 11 9 15 20 26 31 29 35 32 27
43 43 39 38 39 39 36 36 36 34 32 30 31 30 28 28 28 31 33 33 36 39 35 26 24 24 17 22 24 25 8 4 7 12 13 6 14 17 30 27 31 30 31 28
39 37 34 33 32 33 31 33 32 31 30 29 29 27 26 27 28 30 30 32 36 37 32 22 21 21 15 20 24 22 3 3 13 18 11 10 7 1 19 38 35 36 29 28
32 30 31 30 29 30 31 30 30 30 29 27 25 24 26 26 28 29 30 33 36 34 28 22 16 18 14 15 21 19 12 6 4 15 12 16 11 10 2 14 38 37 37 37
32 31 31 31 30 31 31 31 28 27 25 23 21 23 25 26 27 27 31 35 35 28 25 23 17 15 14 13 13 11 12 8 5 4 9 13 12 11 7 4 7 33 38 35
32 32 30 28 28 28 26 25 24 23 20 18 21 23 24 24 25 29 33 35 33 24 23 21 17 13 13 10 5 7 6 4 7 7 12 10 8 11 13 7 4 11 25 27
33 32 31 29 28 26 25 23 21 18 18 21 23 22 23 24 27 30 33 35 26 20 21 20 16 12 8 8 8 8 2 4 2 7 6 8 6 14 13 12 10 11 12 19
32 30 30 28 25 22 20 17 17 19 21 21 22 21 22 26 29 29 32 29 24 22 18 14 10 9 10 10 11 12 13 7 7 4 3 1 2 16 12 16 11 14 20 19
35 33 31 27 24 20 21 21 22 21 21 20 21 23 26 26 26 28 28 24 22 18 14 10 12 12 10 12 12 12 14 8 6 5 3 2 5 15 15 15 13 20 14 21
39 36 33 30 27 25 24 25 23 22 22 22 24 26 27 25 24 24 23 20 18 15 13 10 16 17 14 13 12 15 16 12 11 12 9 9 5 15 24 20 11 8 7 12
45 41 37 34 31 29 27 26 25 25 25 25 26 27 27 24 22 23 21 19 17 16 13 18 17 21 17 13 14 14 15 16 14 14 14 10 8 6 24 24 18 1 5 4
46 44 41 38 33 30 28 28 26 26 27 28 27 29 25 25 23 24 22 21 20 18 18 19 19 21 19 15 12 13 18 18 17 18 19 17 12 12 15 17 20 10 9 12
45 42 40 37 35 33 31 29 29 29 30 31 30 27 25 26 24 24 23 23 23 21 23 22 22 23 22 18 16 14 16 20 16 19 21 20 21 24 23 23 19 12 9 5
45 40 37 36 33 33 34 33 32 33 33 32 27 24 24 24 22 23 24 23 22 18 17 22 23 25 24 21 18 7 11 9 5 20 17 24 27 25 28 27 19 12 10 8
52 43 42 40 36 36 37 34 34 34 32 28 23 23 23 21 21 23 21 17 13 15 19 22 22 25 25 22 14 11 7 11 6 15 14 16 21 29 30 32 27 21 14 16
48 40 40 44 43 41 39 37 34 32 29 21 21 22 21 20 20 17 12 11 10 15 18 21 21 25 27 25 14 10 8 8 9 8 14 16 15 17 26 33 34 30 25 16
45 39 35 42 42 41 36 34 30 27 23 22 21 20 19 17 14 10 8 7 7 12 15 18 19 21 27 24 17 10 11 7 7 9 10 19 20 15 14 25 34 32 25 20
34 31 29 37 40 37 33 32 29 24 22 19 20 18 9 12 9 6 4 3 2 4 10 15 19 19 24 22 15 11 9 8 7 11 14 15 17 19 19 20 27 33 34 22
39 33 29 31 31 31 30 30 24 24 17 17 14 14 12 9 10 6 6 7 5 2 4 10 15 17 18 19 17 13 12 11 6 5 14 18 18 18 19 20 24 26 32 30
39 34 28 30 32 30 29 27 26 20 17 18 15 14 14 13 13 10 6 4 6 6 7 7 10 13 17 22 19 17 14 11 9 6 6 5 15 22 20 18 22 21 29 34
30 32 34 34 32 30 30 27 22 20 23 17 14 13 18 16 13 8 6 8 10 8 8 8 9 9 15 18 19 19 15 12 12 13 10 5 3 7 10 15 16 18 21 20
34 35 33 31 31 30 27 24 21 21 20 17 16 17 18 15 12 6 7 5 4 5 5 5 6 9 10 10 12 15 17 18 17 17 16 13 11 11 6 8 8 11 13 13
34 32 30 25 27 23 20 16 17 22 24 19 18 21 19 15 9 9 8 5 5 8 7 7 8 11 9 10 10 8 14 17 18 22 22 21 19 18 17 16 17 17 19 19
32 21 15 19 16 16 15 18 22 24 24 20 19 21 19 14 9 9 9 7 6 6 6 11 12 13 14 11 11 13 14 14 15 16 20 23 24 24 24 24 24 24 25 25
27 24 22 18 17 16 15 17 21 22 25 22 22 20 20 15 11 8 9 11 10 12 14 15 13 13 14 16 16 18 19 20 21 22 21 22 23 25 26 27 28 29 29 30
26 20 20 20 19 16 14 14 17 19 22 22 24 22 18 18 16 14 13 13 14 14 15 19 20 21 22 24 23 21 21 23 24 25 27 29 30 31 32 32 32 32 33 33

GFSNW_500_spd_120.txt.gz
Wind_Speed
47 43 45 46 46 43 42 40 39 38 37 36 33 32 29 31 31 29 28 28 30 32 33 35 39 40 39 37 36 17 22 27 18 15 11 6 10 15 16 23 28 35 26 29
41 42 43 44 45 44 44 42 40 38 37 34 31 29 29 27 27 27 26 27 29 30 33 35 37 40 36 35 30 23 17 23 19 11 14 17 15 16 14 28 25 23 37 31
41 41 41 42 44 45 42 39 37 34 32 30 28 27 26 26 25 25 25 27 28 30 33 35 36 39 36 32 28 23 21 16 21 21 22 15 6 8 18 27 29 25 25 33
39 39 39 39 39 39 37 34 32 30 28 26 25 25 25 23 23 22 24 26 27 30 33 35 37 37 34 27 24 23 21 16 22 18 20 14 19 16 19 27 27 27 29 19
35 36 35 33 33 32 31 28 30 27 28 24 25 23 23 22 21 22 25 25 27 29 32 36 37 35 30 22 18 22 19 13 16 11 16 11 9 11 4 26 31 13 35 33
31 31 30 28 28 28 27 26 25 26 26 22 22 22 22 20 20 21 22 25 28 30 33 35 34 29 22 20 17 14 10 13 17 5 8 5 4 5 9 12 32 27 34 32
28 29 29 27 24 25 25 24 24 24 22 21 21 22 21 20 20 20 22 25 28 31 33 34 32 23 18 16 11 10 4 10 15 6 7 2 6 6 8 6 8 27 38 41
29 28 28 28 28 27 25 24 24 24 19 20 21 20 19 19 19 20 24 26 28 30 32 31 26 16 6 3 2 7 12 7 11 8 5 4 11 8 6 7 4 5 23 41
31 31 30 29 27 25 24 23 23 22 21 23 18 17 19 20 20 22 24 25 28 29 26 25 19 10 8 8 8 12 14 11 12 10 8 10 5 7 12 12 10 8 13 34
30 28 27 27 26 26 25 24 23 21 20 18 19 20 19 20 22 23 26 25 27 25 22 21 12 9 10 12 13 14 14 14 13 9 9 10 5 5 9 12 11 9 7 15
36 33 30 27 24 23 23 24 21 19 20 20 21 22 21 21 22 25 26 27 27 22 21 15 7 11 16 16 15 14 15 17 16 7 12 14 8 3 13 16 7 9 4 12
38 35 32 30 26 23 23 22 21 24 23 22 22 23 22 22 25 27 26 27 25 24 20 14 14 18 19 20 17 14 16 19 18 15 15 16 8 6 13 25 18 8 6 3
40 38 34 32 29 28 27 28 27 26 24 24 22 23 23 26 30 28 27 27 26 25 24 23 21 24 25 25 23 20 18 22 19 20 22 18 16 13 12 12 25 16 1 3
41 39 38 36 33 30 29 28 27 26 25 25 25 25 27 30 29 27 27 25 26 27 28 28 25 23 29 29 26 19 15 18 23 24 23 22 22 21 18 17 19 19 12 11
35 37 37 35 34 32 31 30 29 28 29 28 26 27 31 31 28 25 24 24 26 28 30 29 24 22 26 25 25 22 16 18 18 25 22 22 25 26 22 21 22 20 14 18
38 33 36 34 34 34 35 34 32 31 32 31 31 30 30 29 24 23 23 23 27 27 24 18 15 23 24 25 25 21 16 14 18 17 20 22 25 27 28 23 22 23 19 13
39 34 35 34 33 39 37 36 35 34 35 34 33 30 28 23 21 20 20 22 21 20 15 13 16 21 21 21 25 23 10 10 15 16 16 19 17 24 26 27 28 26 26 19
43 42 40 38 37 36 38 38 37 36 33 32 28 20 19 19 17 16 15 14 14 11 11 13 16 19 19 23 28 23 14 6 7 7 10 13 18 19 18 14 15 23 28 27
39 40 41 43 37 33 36 38 35 32 30 29 19 17 12 15 12 11 7 5 2 4 8 13 16 18 19 14 22 22 18 10 7 8 11 16 16 17 23 21 17 15 22 28
42 39 42 37 33 28 30 35 33 32 27 17 19 17 11 14 12 7 5 5 2 1 4 6 11 16 16 13 16 21 19 11 9 11 15 16 18 20 20 18 18 18 18 23
45 41 35 32 26 25 28 30 32 25 19 18 18 18 20 11 9 11 8 4 5 4 7 6 8 9 12 16 19 23 18 15 12 11 12 13 13 22 26 24 21 18 18 19
30 31 33 26 27 29 27 29 23 21 22 19 19 19 18 17 13 11 9 8 7 9 10 9 11 12 12 13 19 21 20 19 17 16 15 11 13 10 17 21 19 18 18 20
33 28 28 26 28 29 23 20 22 20 18 14 19 16 16 19 15 12 10 10 6 5 8 8 8 10 9 8 15 19 21 20 20 18 18 18 19 13 6 9 12 15 15 15
32 30 32 27 27 24 22 17 16 17 19 19 17 17 18 19 16 10 9 7 8 8 9 6 9 8 10 10 11 11 13 18 20 21 21 23 22 22 18 15 11 12 15 15
28 28 26 20 14 19 15 14 17 23 26 22 18 18 19 17 13 9 7 6 6 6 8 12 13 16 15 15 16 15 15 15 16 18 22 24 26 26 26 25 25 24 23 21
26 20 22 17 19 19 17 21 24 27 25 22 15 13 20 16 12 9 9 12 13 10 13 15 14 15 14 11 17 19 20 20 21 23 24 24 25 27 28 29 31 31 32 32
20 18 20 14 15 15 14 15 22 21 22 19 16 19 17 14 16 15 15 15 16 15 16 17 18 19 21 22 23 24 26 28 28 28 30 30 31 31 32 34 35 36 36 36

GFSNW_500_spd_123.txt.gz
Wind_Speed
49 46 48 49 45 44 44 44 45 44 39 36 33 32 30 27 27 26 25 25 26 26 25 26 29 30 33 39 42 44 34 24 17 12 19 17 21 20 9 17 14 11 22 30
44 42 47 45 42 44 44 46 46 41 37 34 32 30 29 28 29 24 22 23 24 24 25 26 27 28 34 38 42 39 32 18 22 12 9 12 21 16 23 20 20 17 26 35
34 37 43 40 39 38 41 44 44 40 38 36 33 29 26 26 26 24 24 23 23 23 24 25 26 28 32 36 38 31 30 12 19 20 20 20 15 12 20 17 13 15 30 25
30 32 33 34 33 34 36 42 41 40 35 32 27 26 24 25 22 23 22 21 21 23 22 24 25 28 32 34 34 23 22 13 16 16 22 12 17 21 27 17 12 19 18 21
28 30 29 29 31 32 34 36 35 35 30 27 25 23 22 23 23 20 20 20 21 21 22 23 25 29 32 34 28 20 17 13 16 10 20 14 8 18 23 9 16 22 25 21
28 26 26 28 31 32 31 32 31 28 29 25 23 22 23 22 21 19 18 19 19 20 21 22 27 29 31 32 26 14 19 18 17 8 11 3 2 11 4 21 16 18 26 32
22 25 26 27 30 31 30 26 27 26 24 23 22 22 22 20 18 18 18 19 18 20 21 23 26 27 28 27 18 17 13 13 11 10 13 12 9 11 8 5 2 10 29 30
22 23 24 26 26 25 28 29 28 24 21 19 21 21 19 18 18 19 20 20 17 21 21 24 24 25 26 15 5 9 9 6 10 12 10 9 7 13 12 9 12 17 4 31
24 28 29 30 30 28 25 24 22 21 22 21 17 17 19 19 18 18 20 18 19 21 24 25 24 23 22 12 13 9 10 13 16 14 11 12 16 12 8 9 10 10 7 21
26 28 27 27 26 25 25 24 24 23 22 21 21 21 18 18 19 20 19 17 20 23 23 23 22 22 16 13 17 16 13 18 20 16 16 14 18 9 8 9 8 7 6 1
28 28 30 30 29 27 25 26 25 22 22 22 20 19 20 20 19 19 18 19 21 24 23 24 23 20 13 16 14 14 14 15 18 19 12 17 14 9 9 8 10 8 11 8
32 30 29 27 26 25 25 25 23 22 23 21 22 22 21 21 19 19 20 24 25 24 24 24 23 20 17 21 21 20 17 15 18 20 23 18 15 12 9 7 12 11 6 11
38 36 33 30 28 27 27 26 25 23 22 22 23 25 22 21 21 20 25 25 25 26 24 26 24 24 22 24 28 28 24 20 20 22 25 22 16 14 10 8 12 21 9 1
39 37 34 31 29 28 27 27 26 24 24 26 25 25 23 22 23 24 25 26 25 24 25 24 25 27 29 28 30 29 24 21 18 24 30 27 25 22 17 11 14 15 13 12
43 40 37 35 32 30 29 29 29 28 28 28 27 23 23 23 25 27 28 27 23 24 22 25 29 31 32 26 27 30 25 23 19 20 25 29 26 20 20 18 18 21 20 12
42 40 39 37 35 34 33 32 32 30 29 27 27 25 25 25 27 27 24 21 22 22 25 28 27 24 20 20 21 22 23 21 14 18 20 22 22 22 19 20 21 22 19 19
39 31 32 29 33 36 34 34 33 32 31 30 28 27 27 27 26 22 20 21 20 22 23 22 16 16 14 13 14 19 23 22 16 16 15 21 22 19 15 19 22 25 22 20
43 32 26 33 30 33 35 34 35 34 32 29 28 28 26 22 19 17 18 17 18 18 16 12 10 13 12 11 14 15 22 24 13 9 11 12 15 15 16 17 15 17 22 23
37 33 31 33 33 25 25 26 31 34 31 29 26 24 17 16 14 13 11 10 8 8 6 8 8 11 10 11 10 14 20 23 19 13 10 11 13 16 14 13 13 13 13 16
51 46 30 29 26 23 25 28 27 30 31 28 21 13 13 14 12 10 8 6 3 2 4 7 6 9 10 11 14 15 19 23 22 14 14 13 12 16 16 17 14 15 17 18
56 48 33 26 27 30 32 31 28 27 29 24 15 16 19 16 7 6 8 7 5 4 6 8 8 6 8 12 13 13 18 20 18 16 14 13 16 16 16 18 20 18 16 17
43 38 36 32 32 31 29 28 25 24 20 16 20 17 24 12 9 9 11 8 6 6 8 9 9 11 13 12 12 13 17 20 20 20 19 19 18 18 19 17 17 20 17 16
41 37 36 30 29 29 26 22 18 13 16 19 18 17 22 26 18 14 14 12 8 10 8 7 9 12 11 11 11 11 12 17 19 20 21 21 21 20 19 22 13 14 13 17
37 30 27 28 30 23 17 14 17 17 15 14 14 19 19 21 21 16 13 9 7 7 7 10 10 8 9 9 11 8 9 14 17 18 19 20 23 22 23 21 20 19 15 16
28 24 22 19 16 15 15 14 15 16 18 15 15 17 15 19 21 16 10 8 6 7 9 8 8 10 12 16 13 14 15 15 15 17 18 20 21 21 21 24 23 23 24 25
32 23 19 18 14 19 18 20 22 21 16 19 15 12 16 17 18 13 11 12 10 13 12 12 11 13 14 15 14 14 19 22 22 23 24 25 26 28 28 27 26 28 29 30
20 25 23 17 16 19 17 22 24 27 25 24 17 13 13 17 15 13 14 15 15 16 16 16 16 17 18 17 16 20 22 25 28 30 31 31 32 33 34 35 35 35 34 34

GFSNW_500_spd_126.txt.gz
Wind_Speed
47 55 48 53 49 48 51 48 51 46 46 46 47 46 43 36 29 28 26 26 26 25 22 24 24 22 25 28 30 33 37 40 37 15 13 15 15 29 29 30 27 27 30 14
51 47 42 39 48 46 52 50 47 45 47 48 47 44 42 35 29 26 23 23 23 21 22 23 21 20 24 28 29 33 37 36 34 11 10 16 15 16 26 29 36 32 26 20
38 41 39 37 42 47 48 44 43 46 45 45 44 40 35 32 28 25 22 23 22 22 21 20 18 19 23 26 30 32 38 31 23 11 11 17 20 15 17 27 27 14 16 16
40 42 44 45 43 43 42 39 41 42 44 45 44 39 34 30 28 25 22 23 22 21 19 18 16 20 21 26 30 31 35 25 17 10 15 17 14 14 17 25 16 8 10 11
32 37 43 44 42 41 40 38 38 38 40 42 39 35 27 27 27 25 22 21 20 19 18 15 17 18 21 23 29 31 33 17 14 6 12 16 9 15 17 17 14 13 13 15
34 34 35 33 34 38 36 34 33 35 39 37 32 28 30 29 26 22 21 21 19 19 15 17 17 18 21 24 27 30 25 21 15 8 12 15 13 13 12 11 20 12 11 19
31 32 32 31 32 30 30 30 32 33 31 29 30 29 29 27 23 20 20 22 21 16 17 16 17 18 22 25 26 25 13 17 12 9 13 15 14 13 15 9 13 12 14 20
29 30 30 29 29 28 28 27 28 30 30 29 29 27 26 23 20 22 22 20 16 18 17 16 19 21 23 24 22 18 13 10 10 10 9 12 9 8 12 14 10 13 9 8
23 24 24 26 22 22 23 25 27 29 30 31 30 27 24 22 21 22 20 16 18 20 17 16 20 23 21 22 21 14 15 14 18 15 13 12 11 11 16 10 8 8 8 5
20 21 22 22 23 24 26 26 28 29 30 29 27 23 22 22 22 22 20 20 18 18 18 20 22 23 22 20 15 18 22 24 20 17 17 16 10 11 13 10 11 5 7 6
19 20 23 24 27 29 30 30 28 27 25 23 23 23 24 25 24 23 22 20 19 19 20 22 23 22 22 19 16 18 24 23 21 21 21 21 18 14 12 10 12 5 4 6
24 22 22 23 27 28 28 26 22 23 24 24 25 24 25 25 22 21 21 20 19 19 21 24 25 22 20 19 20 20 24 26 24 20 22 25 25 15 15 11 9 15 2 2
28 27 27 26 26 25 25 24 24 24 25 24 24 23 23 23 23 22 21 20 20 21 24 25 23 22 23 22 24 23 23 29 28 25 21 24 27 22 14 12 9 9 6 5
32 31 31 30 29 28 26 25 26 27 25 25 25 24 24 23 22 22 22 22 23 25 27 24 23 23 27 27 29 29 28 29 29 25 27 24 25 26 21 18 13 8 10 11
38 36 34 32 30 30 30 29 27 27 26 24 27 25 24 23 23 23 23 24 27 27 25 23 25 26 29 32 33 29 28 26 25 22 21 23 19 23 25 20 20 17 12 12
31 38 36 36 36 33 32 31 29 28 28 28 25 24 24 24 25 25 26 27 26 25 22 24 26 29 32 27 20 18 16 15 19 19 18 19 19 19 22 22 21 22 18 13
45 43 37 35 32 30 29 29 30 28 29 28 28 27 25 25 27 27 26 26 23 20 22 24 26 27 19 15 12 14 16 18 18 15 16 17 19 18 17 21 21 22 19 15
47 43 38 36 35 34 34 32 32 31 30 30 29 28 27 28 28 27 25 20 18 20 21 20 16 15 11 7 10 10 14 15 16 17 14 14 12 13 15 14 14 16 19 20
41 38 32 29 30 31 32 34 33 33 32 30 28 29 29 26 23 21 17 17 18 15 11 7 8 10 6 5 8 10 12 15 19 22 22 12 10 8 11 12 12 14 16 16
42 33 28 27 29 27 22 24 30 32 32 29 26 27 25 21 18 16 15 13 11 7 4 3 6 6 7 6 7 11 13 18 22 24 24 17 14 7 8 11 14 15 18 19
45 39 30 27 25 27 25 24 23 22 22 24 26 26 19 17 17 15 10 12 11 6 6 6 6 6 8 10 8 7 10 15 21 22 23 20 17 13 12 13 14 16 18 19
53 40 31 30 27 27 26 24 21 19 20 14 17 19 20 19 16 11 10 12 11 8 8 9 7 9 12 12 11 9 9 11 16 20 21 21 20 18 17 17 18 17 16 16
43 34 34 32 30 26 31 27 19 15 18 17 20 23 21 20 15 13 12 14 8 7 7 8 9 11 7 8 8 8 10 10 9 11 15 18 20 21 22 21 22 19 16 17
41 39 36 37 34 35 28 22 23 21 21 22 21 20 22 24 25 25 16 15 10 8 10 7 8 13 6 9 9 11 9 11 11 12 15 16 18 19 20 22 21 22 23 21
43 39 37 35 30 21 22 20 21 23 19 17 19 17 20 27 30 25 18 15 11 7 8 10 8 8 8 8 9 10 12 15 16 19 20 19 18 18 18 20 22 24 24 23
35 30 28 22 20 18 18 22 22 21 20 17 14 12 17 17 20 24 21 16 13 9 11 11 12 12 12 12 13 14 13 14 18 21 24 26 27 27 27 27 28 26 27 29
30 26 20 17 20 23 22 23 25 26 22 17 15 12 15 14 18 21 17 15 15 16 16 14 14 16 17 18 18 21 23 26 29 29 29 30 32 33 34 34 34 34 33 33

GFSNW_500_spd_132.txt.gz
Wind_Speed
44 48 51 55 61 58 60 67 63 62 62 57 56 62 59 52 44 44 46 42 40 43 42 38 35 35 32 26 28 30 27 27 24 28 32 36 40 42 41 36 28 27 33 34
35 39 43 51 53 60 65 65 62 70 55 54 46 47 45 47 48 48 49 46 43 47 43 39 37 33 28 26 30 29 25 24 26 27 31 35 37 38 33 26 27 25 27 35
37 37 41 51 48 50 61 57 54 48 52 49 49 46 41 42 45 51 52 51 49 50 43 38 35 29 24 29 29 26 24 22 26 25 30 34 35 31 27 24 24 26 26 32
52 29 46 47 37 50 54 54 54 52 49 50 46 46 52 48 47 49 55 56 48 44 41 38 33 24 27 29 26 25 22 23 25 25 31 34 34 27 24 24 21 24 21 24
56 53 51 55 38 45 47 46 45 45 42 46 45 43 43 41 40 41 51 48 39 39 36 34 30 28 28 26 26 24 23 26 23 24 31 33 32 24 20 22 21 21 21 24
30 37 43 49 51 41 43 40 37 39 41 44 45 43 38 38 39 43 44 38 37 34 35 34 31 27 26 28 25 25 26 24 24 26 30 32 29 21 20 18 16 21 19 20
35 34 34 32 33 36 39 40 36 38 37 37 35 35 38 38 41 41 37 35 33 34 35 31 28 27 27 27 26 26 26 24 26 26 29 29 22 21 18 17 20 21 17 13
38 39 39 39 41 43 44 40 39 36 33 34 36 37 38 37 38 37 32 32 36 36 32 29 28 27 28 26 27 27 25 26 26 26 26 23 21 24 19 17 19 20 18 16
31 36 38 40 41 43 42 40 33 36 36 37 36 37 36 33 32 31 33 35 34 31 30 30 28 27 26 27 27 26 27 25 25 26 25 20 18 23 23 21 21 23 21 20
27 29 33 38 39 37 35 34 36 36 37 35 32 33 30 28 31 33 28 29 30 28 28 27 26 27 27 25 26 27 26 26 26 26 24 21 22 25 25 24 20 22 21 18
28 28 30 32 33 33 33 32 33 34 33 30 28 28 28 27 27 29 31 30 29 28 26 25 26 26 25 26 27 27 27 29 28 29 25 24 23 22 24 26 26 22 21 19
27 31 31 32 33 33 33 33 32 30 30 26 28 28 29 29 32 28 27 27 28 26 25 26 27 25 25 27 27 27 28 29 30 29 25 27 26 24 24 26 28 27 20 20
27 29 30 31 32 32 31 32 29 29 29 29 28 27 29 28 25 24 25 25 24 23 24 24 24 26 28 28 28 28 28 31 29 29 27 28 28 28 27 27 29 29 27 21
23 26 29 30 30 31 30 29 27 27 24 23 25 27 27 26 25 25 25 23 22 23 23 24 25 28 28 29 30 31 33 33 32 31 29 34 35 35 32 30 30 27 28 25
25 25 26 26 27 25 26 27 26 26 25 25 25 25 26 26 25 23 22 21 22 23 24 25 26 28 29 30 31 29 35 34 33 33 36 37 34 31 28 27 27 25 25 28
21 22 25 25 23 23 23 24 24 22 22 21 25 26 26 23 21 20 19 20 21 23 24 26 27 29 30 31 30 34 35 31 32 32 32 28 21 22 21 18 20 22 22 26
19 18 18 19 20 21 21 22 22 19 20 21 23 23 22 21 20 20 21 21 22 23 24 26 28 30 29 27 31 32 29 28 29 28 24 17 17 18 18 18 20 21 23 21
17 17 18 20 20 20 21 20 20 20 20 20 19 18 20 20 20 20 21 21 22 23 25 28 27 25 25 26 28 27 25 23 21 18 14 13 15 16 13 14 16 20 23 24
22 22 21 21 19 18 19 19 19 19 19 19 20 21 19 19 20 21 22 22 24 25 26 23 22 23 21 22 22 22 19 15 14 12 12 15 16 17 18 20 19 18 19 23
28 29 26 24 23 21 20 19 19 20 20 20 21 22 20 20 21 22 23 25 24 24 21 20 17 17 17 16 13 13 13 14 14 13 12 16 19 19 19 20 15 12 14 14
36 35 30 26 24 23 23 22 22 22 22 23 23 23 22 24 24 24 23 23 21 19 18 16 13 14 14 10 11 14 15 13 13 15 16 16 16 16 19 19 14 14 13 13
37 33 29 28 26 24 22 20 21 21 22 22 22 22 21 22 21 22 21 20 19 17 16 14 10 16 12 11 12 14 12 11 12 13 14 14 13 15 15 16 17 17 17 16
39 40 36 30 28 26 22 16 14 14 16 17 18 19 20 21 21 21 20 19 14 14 14 12 10 9 12 11 9 10 10 11 12 10 10 9 10 12 14 17 21 23 25 26
49 43 40 40 34 28 20 14 17 17 14 15 18 18 18 18 19 19 20 17 15 13 11 8 6 6 7 9 10 11 12 11 13 14 14 14 13 14 15 17 20 21 23 25
40 39 37 37 31 23 18 17 17 18 18 19 20 21 20 20 20 22 22 17 15 9 12 11 10 6 4 7 9 11 11 13 15 17 18 20 21 23 25 27 27 27 29 29
29 34 27 20 22 22 18 15 17 19 19 19 21 21 19 22 25 24 22 19 13 9 12 12 13 9 9 11 13 15 18 22 25 27 28 30 31 32 33 34 35 36 36 35
39 32 26 27 27 25 23 21 18 21 20 18 18 17 17 20 21 18 18 16 19 17 11 12 12 13 14 15 17 23 25 24 23 25 26 28 29 30 31 32 32 33 34 36

GFSNW_500_spd_135.txt.gz
Wind_Speed
56 57 60 62 61 57 57 61 63 66 75 80 71 68 61 58 65 58 49 40 38 41 41 39 39 41 43 42 38 34 31 30 30 30 30 29 31 30 30 35 37 36 34 22
48 51 53 54 52 54 59 61 65 71 78 79 66 50 62 49 52 50 48 48 43 40 39 40 40 42 43 45 39 36 31 28 26 26 28 29 30 28 31 34 36 35 30 20
40 43 48 48 51 50 55 63 69 71 80 63 61 50 51 51 57 58 45 45 46 46 43 43 45 46 48 47 37 36 30 27 25 26 27 28 28 29 32 34 34 33 29 18
35 35 33 36 44 52 58 60 64 69 65 56 52 53 54 51 48 47 41 41 42 44 43 46 49 49 48 40 38 34 28 25 24 25 27 27 27 29 32 31 30 31 29 27
30 42 40 41 42 50 53 54 58 61 50 53 56 56 55 43 39 39 39 38 40 40 42 47 48 51 41 38 36 30 25 24 24 25 27 27 28 29 30 28 27 27 27 26
47 34 37 45 41 37 51 55 51 56 44 50 49 45 43 44 42 38 41 45 43 41 42 44 48 40 36 33 31 28 25 25 24 25 26 28 29 30 28 29 24 25 23 24
40 41 53 46 47 47 27 27 32 38 53 45 40 43 39 42 44 43 38 40 40 42 38 36 36 35 34 33 29 27 26 25 24 26 26 29 29 28 28 27 22 21 22 22
29 30 35 44 46 46 43 42 39 40 38 44 44 43 42 45 46 38 36 38 39 34 34 35 33 34 33 32 28 25 25 25 25 26 28 29 28 28 27 26 23 23 22 24
31 35 35 36 37 38 38 36 36 38 40 42 38 39 35 36 36 39 37 36 33 36 34 35 34 33 32 29 24 24 25 25 25 29 29 28 28 26 25 25 24 24 26 26
31 34 36 40 40 40 41 42 42 41 39 38 35 36 39 35 35 35 32 28 34 30 30 31 31 33 31 27 23 23 25 26 27 29 29 29 29 29 27 25 25 25 29 27
29 32 33 34 34 36 38 38 36 37 38 38 36 34 33 33 30 28 28 30 27 28 30 31 30 30 27 24 23 24 25 26 28 29 29 29 30 30 30 27 25 25 29 28
26 30 33 33 33 33 34 35 37 38 38 35 34 33 32 29 31 29 27 26 30 28 28 28 29 26 24 22 23 23 23 26 28 29 30 32 33 31 32 27 26 25 27 29
26 29 31 34 37 36 36 35 34 37 35 31 29 31 30 30 28 26 28 27 25 25 26 26 24 21 20 21 21 24 26 29 29 32 31 34 35 34 33 30 30 32 29 28
26 28 31 32 32 32 32 33 33 32 29 29 29 28 28 29 26 24 24 26 27 26 25 22 21 20 20 19 19 23 28 30 31 31 32 35 34 35 36 37 37 37 34 31
24 25 26 29 31 31 32 32 30 29 28 28 29 30 29 24 22 21 21 23 23 22 20 18 18 18 18 18 22 27 31 31 31 31 34 34 35 36 35 34 32 30 28 26
25 24 25 26 26 27 28 29 28 28 28 29 29 27 24 22 21 19 19 21 19 18 17 17 18 17 17 20 26 30 30 30 34 34 30 30 31 32 30 26 21 21 22 24
26 25 26 25 24 26 27 26 26 27 25 26 25 23 23 21 21 21 21 18 15 15 15 15 15 16 21 25 28 29 30 31 27 26 26 26 24 21 19 17 17 19 21 23
24 25 25 25 26 28 28 27 24 21 20 19 20 21 21 21 20 18 16 13 12 13 13 14 17 20 23 27 28 28 24 22 21 21 20 18 16 13 14 15 15 14 15 20
20 19 21 23 23 23 22 23 19 17 17 17 18 18 18 16 15 14 12 11 12 14 14 15 18 22 24 25 24 20 16 16 17 15 13 13 13 13 14 16 18 18 20 20
18 19 18 17 18 19 19 19 18 18 18 18 17 16 15 14 12 10 10 12 13 15 16 18 19 22 21 16 13 10 12 14 14 15 16 15 15 16 18 19 21 20 18 14
17 16 15 15 15 16 17 16 16 16 15 14 14 14 11 10 10 11 12 14 16 18 17 15 16 19 14 9 8 10 13 14 14 14 15 15 16 16 17 18 18 19 16 12
18 16 14 10 9 11 12 13 13 12 12 11 10 10 11 12 14 15 16 17 17 16 16 13 12 16 11 7 6 7 9 8 10 13 13 14 14 13 12 13 15 17 18 18
27 24 19 15 13 12 11 10 10 10 10 9 10 11 13 13 14 15 16 16 16 14 11 10 11 9 9 7 7 6 9 12 15 14 15 15 14 13 14 14 16 18 19 21
32 27 25 22 20 16 14 13 11 8 8 9 11 13 13 14 14 14 15 14 13 10 10 8 7 7 7 5 7 9 9 11 13 13 15 17 18 19 20 21 23 25 27 27
37 32 28 23 19 15 13 10 8 7 9 10 11 14 14 15 16 16 15 13 11 10 10 10 9 4 5 6 6 8 9 12 15 21 24 26 27 29 30 31 32 34 34 35
37 37 31 24 23 19 17 12 10 11 13 14 15 15 16 18 19 17 16 10 10 13 11 13 13 12 7 7 8 12 15 18 24 21 19 19 21 24 27 29 30 32 32 33
33 29 29 29 23 22 18 16 14 12 11 12 16 17 18 17 16 14 12 10 13 15 10 13 12 13 13 11 13 16 19 23 18 18 20 21 22 22 23 23 23 25 27 29

GFSNW_500_spd_138.txt.gz
Wind_Speed
72 67 65 63 64 65 70 70 70 63 59 66 72 68 74 77 67 62 64 48 50 48 46 40 43 46 50 43 41 39 40 43 41 39 37 35 31 28 27 26 31 30 32 34
73 68 61 62 66 68 68 68 68 67 61 68 68 69 73 73 69 51 60 63 57 50 44 39 41 41 40 41 41 40 41 43 41 40 38 34 28 28 25 25 28 30 32 31
65 67 70 65 65 66 68 70 71 70 67 64 64 64 68 78 77 63 56 59 58 52 53 48 42 38 38 40 42 42 42 42 44 39 37 32 26 25 25 26 28 30 32 33
42 58 60 59 63 68 68 72 73 66 66 62 58 59 57 68 77 70 64 62 62 67 50 47 48 42 41 44 46 44 40 40 39 37 36 26 24 24 24 25 28 29 31 33
25 36 46 52 57 60 64 64 63 57 53 56 59 60 57 62 73 70 62 52 47 51 52 44 39 40 46 46 42 39 40 39 37 33 30 24 24 23 25 26 27 28 30 31
25 30 38 41 48 51 51 52 52 52 55 57 59 55 56 59 67 67 56 50 49 57 52 45 41 44 42 37 39 40 37 37 34 32 26 24 24 23 25 26 27 28 29 27
28 43 33 35 37 39 46 51 50 51 52 53 48 51 47 49 56 54 51 54 52 56 47 43 42 41 34 36 38 37 37 36 33 28 25 26 23 24 24 26 27 29 28 26
24 36 39 35 37 35 37 37 39 43 43 43 44 44 52 51 49 54 54 48 45 47 43 42 38 37 36 36 33 34 35 32 30 26 22 24 24 24 26 28 29 30 28 27
29 38 36 39 35 33 33 29 31 33 32 39 44 49 39 43 47 51 49 49 43 42 44 35 33 34 32 31 32 31 31 32 27 22 23 24 24 25 27 29 31 28 29 30
28 30 37 42 24 30 34 40 28 31 37 38 37 41 42 41 43 40 41 41 42 36 36 35 33 31 32 32 28 30 30 27 21 23 22 24 25 26 28 30 30 29 31 31
30 33 39 41 40 39 45 47 43 36 36 38 34 39 38 35 33 33 36 35 33 33 34 31 30 29 29 27 27 29 26 24 20 22 23 26 26 29 30 31 32 34 34 30
32 33 34 38 41 40 38 37 36 36 33 33 33 34 32 33 31 31 32 29 33 31 28 27 26 26 25 25 29 27 22 19 21 22 24 26 29 31 32 34 36 35 33 29
26 27 30 31 30 33 33 33 32 32 28 29 33 32 31 33 34 33 29 29 28 27 26 26 25 24 25 26 23 22 19 21 21 24 23 28 30 32 36 38 38 36 34 33
30 29 28 29 30 30 29 27 25 27 28 31 33 34 36 31 28 26 27 27 28 25 23 23 23 24 22 20 18 19 20 21 21 23 26 30 33 35 37 37 37 36 37 38
29 32 33 32 31 30 28 29 28 29 25 29 32 33 30 28 26 25 24 24 23 23 23 22 20 19 18 18 18 20 18 18 21 24 29 32 35 36 35 35 36 36 35 35
26 28 29 29 28 29 30 29 29 30 31 30 32 31 29 29 26 25 23 23 24 22 21 19 19 19 16 17 18 14 16 20 25 27 30 33 33 32 33 33 32 30 27 24
26 28 27 29 30 30 29 26 25 28 29 29 29 28 28 26 27 25 23 22 21 21 21 20 17 15 14 13 13 15 19 24 26 29 29 28 29 29 27 25 23 18 13 15
25 26 27 27 27 27 28 27 26 27 26 25 26 25 26 26 25 22 22 22 20 18 16 14 13 11 11 11 14 18 22 25 26 23 23 25 23 19 19 19 16 12 14 14
28 28 29 29 30 28 27 27 27 24 22 23 24 22 24 24 23 23 22 20 17 15 12 10 9 10 10 13 16 19 21 20 18 17 17 18 19 19 18 17 14 14 16 18
29 29 30 31 31 30 30 29 26 25 25 25 23 23 21 22 21 19 18 15 13 11 9 8 10 11 12 14 17 17 15 13 13 14 15 17 17 17 18 18 19 20 20 20
26 26 25 27 28 27 25 24 25 25 25 24 24 24 22 20 20 16 13 10 9 8 8 9 11 11 12 13 14 11 8 7 8 9 13 13 14 15 16 17 17 18 17 19
24 25 24 24 24 23 22 22 22 22 21 21 22 21 19 17 14 11 9 8 7 7 7 9 13 13 11 11 10 6 3 4 7 11 12 14 15 16 16 15 15 15 17 18
18 18 19 21 20 20 20 20 20 20 20 19 18 16 13 12 11 10 8 7 7 8 9 12 13 12 9 8 10 8 5 7 7 10 12 14 17 19 19 19 20 21 22 23
16 13 13 12 13 12 12 12 12 13 13 12 11 10 10 9 9 8 7 7 7 8 11 11 10 9 7 7 8 8 8 8 9 12 15 21 25 24 23 24 26 28 30 32
18 14 12 9 6 5 6 8 10 10 10 10 10 11 10 9 8 6 7 7 8 11 10 10 9 9 9 11 7 6 7 9 13 16 22 20 18 19 20 20 21 23 24 26
21 19 15 12 8 6 8 9 9 9 9 10 9 8 7 6 6 7 8 8 10 12 11 12 14 13 9 9 8 8 9 13 17 20 16 17 17 18 20 21 21 22 22 22
29 25 21 17 13 11 11 10 10 9 9 9 8 7 8 9 12 12 10 13 14 15 14 15 15 16 14 12 10 10 12 16 19 15 17 18 19 21 22 22 22 23 23 23

GFSNW_500_spd_144.txt.gz
Wind_Speed
83 80 78 76 74 71 71 69 71 69 69 72 74 73 65 59 58 62 61 68 71 71 64 65 59 62 59 54 51 53 44 48 43 42 41 42 43 39 37 37 36 40 40 37
74 77 79 77 76 75 73 73 71 70 69 73 71 67 63 60 58 59 62 66 70 72 71 57 59 55 42 38 40 49 55 51 43 41 41 41 44 43 37 36 37 38 39 35
55 59 65 73 77 77 75 67 66 67 73 69 66 63 63 61 55 56 59 56 60 67 72 66 40 62 51 51 50 44 48 49 45 39 38 40 40 36 35 37 40 32 38 30
53 54 56 59 63 68 71 68 71 67 72 71 65 63 61 61 59 57 56 54 55 59 64 74 70 50 53 49 52 47 41 37 36 41 44 42 39 35 36 40 37 36 33 39
39 45 48 51 55 59 69 72 71 67 57 65 62 61 61 60 55 56 53 52 48 52 57 63 72 68 54 57 53 47 52 42 42 46 47 44 39 38 39 40 39 37 37 36
32 38 44 47 52 59 67 70 70 68 70 64 64 64 59 55 51 52 49 48 48 49 47 49 55 61 67 51 45 41 37 40 45 46 47 41 39 40 40 37 40 39 40 35
29 33 37 42 48 55 64 66 65 69 73 65 64 57 50 48 49 47 49 50 48 42 37 47 52 46 61 54 45 41 37 37 40 41 44 44 36 41 36 38 36 38 36 34
32 35 40 46 52 57 59 60 66 70 70 61 55 53 49 47 47 46 45 46 45 43 44 45 45 45 52 55 57 47 48 43 40 44 47 40 39 39 37 36 36 37 34 30
28 29 33 38 45 55 61 68 57 63 64 63 49 46 49 47 44 42 41 43 36 45 42 46 50 46 41 46 58 60 50 46 43 44 40 39 37 44 32 33 35 38 28 31
12 12 18 21 28 37 49 52 60 57 57 51 51 42 32 34 40 42 42 39 47 46 43 41 42 41 38 44 46 52 51 43 42 41 40 36 40 41 28 34 35 26 29 29
2 3 11 14 15 26 37 40 46 48 48 41 42 37 34 36 42 43 45 47 50 44 42 40 42 44 46 41 40 44 45 39 38 39 35 37 42 32 33 29 29 26 28 27
8 4 21 21 22 25 34 45 50 48 40 37 35 34 31 34 33 37 37 35 38 38 42 41 42 44 41 39 38 42 43 38 37 34 31 36 32 29 27 28 26 25 28 29
12 16 17 31 30 27 28 31 38 37 35 30 31 29 32 35 36 32 37 33 35 36 38 43 44 44 41 37 38 37 36 33 32 28 29 30 26 24 21 22 25 27 31 33
12 27 30 23 26 33 33 33 39 35 29 29 21 27 28 23 27 29 27 30 23 33 33 29 39 39 36 33 31 34 28 23 25 26 26 21 22 21 18 24 27 30 34 36
12 20 35 35 35 34 29 24 24 26 31 26 21 19 26 30 28 31 32 33 27 23 30 30 31 31 30 31 31 30 23 24 22 24 19 19 19 17 23 25 30 32 36 39
22 21 26 41 48 46 43 42 39 33 30 28 26 28 28 26 27 30 31 32 30 32 36 35 29 29 28 28 28 24 19 21 19 16 15 15 18 21 24 28 31 35 37 38
24 26 25 26 30 36 36 30 35 39 31 30 28 34 32 32 33 37 37 36 34 31 29 25 24 25 24 23 20 22 21 15 12 12 14 17 19 23 27 31 33 33 34 31
28 28 29 29 28 28 29 28 33 32 29 26 24 35 39 39 37 34 32 29 27 25 24 26 25 24 23 20 19 16 13 11 12 13 15 18 21 25 28 28 29 27 25 23
28 29 30 31 32 31 30 29 31 32 30 30 25 21 29 31 30 30 27 27 28 28 27 26 24 23 19 20 16 13 11 11 12 14 16 19 21 21 20 16 15 17 19 21
29 30 32 33 33 31 30 31 31 31 28 21 19 22 23 25 26 26 30 31 30 28 25 24 22 19 19 15 12 11 11 11 14 16 16 15 13 9 8 11 14 18 21 21
28 29 31 30 32 31 30 29 29 30 30 29 27 25 23 27 28 27 27 27 26 26 24 21 21 17 15 13 12 10 12 13 13 12 11 8 7 9 12 17 21 22 22 22
24 23 24 26 28 27 28 28 28 30 30 32 31 30 29 26 27 28 27 26 24 23 21 18 16 16 13 12 11 11 12 12 10 9 6 5 7 13 17 18 19 21 23 23
30 29 27 26 26 29 28 26 27 26 27 27 29 31 32 30 28 28 27 25 23 21 19 16 14 13 12 11 12 13 13 12 9 7 4 7 13 15 15 17 18 19 20 20
31 30 28 26 24 22 21 24 25 26 28 28 30 30 31 30 29 26 25 22 21 19 17 16 13 12 11 13 15 15 14 13 8 7 7 10 14 13 15 16 17 19 20 21
26 27 25 24 24 25 25 27 27 29 29 28 29 29 28 27 26 24 22 20 18 15 13 13 12 13 14 15 15 15 14 11 8 8 8 13 12 13 14 15 17 19 20 22
28 27 28 27 25 25 26 27 26 26 26 27 26 25 25 23 21 19 18 16 14 13 13 11 12 14 15 16 16 15 15 11 7 6 10 11 11 12 14 16 18 19 21 22
26 28 25 25 23 22 23 24 24 23 23 23 22 21 21 19 19 17 15 14 12 11 12 14 16 16 15 17 18 17 14 12 7 8 11 10 10 12 15 17 19 21 22 23

GFSNW_500_spd_147.txt.gz
Wind_Speed
78 78 78 78 76 74 75 74 75 69 69 71 72 73 68 65 62 59 58 58 57 53 51 63 68 68 57 57 53 56 56 53 46 37 42 47 43 43 46 44 38 36 38 43
81 82 83 83 81 78 77 75 72 68 69 69 70 67 63 61 59 59 57 58 54 52 57 59 60 62 58 56 53 40 46 51 46 47 47 50 48 46 43 41 38 40 42 43
65 64 66 74 80 80 78 75 72 67 65 63 65 62 62 60 56 56 57 56 53 52 56 57 58 58 55 59 54 47 43 42 39 37 36 43 50 52 48 42 36 35 36 39
56 56 54 54 57 62 69 72 77 71 66 65 61 62 60 56 57 56 54 55 52 51 54 51 55 56 60 54 50 44 51 44 44 40 41 44 49 50 47 42 37 38 30 36
55 53 51 48 49 49 54 61 72 72 71 61 57 55 57 56 50 53 54 54 49 50 51 47 46 45 50 61 63 62 45 32 32 36 42 46 37 35 38 44 43 39 36 35
37 39 41 42 43 49 52 54 55 58 61 62 58 55 51 51 47 49 47 47 46 49 44 43 43 43 43 46 53 60 72 53 37 33 40 43 45 38 39 41 39 36 39 39
24 26 30 35 40 48 52 49 48 54 54 55 44 45 49 48 46 45 43 45 46 40 41 44 46 42 38 39 40 48 56 58 64 45 32 37 39 39 35 36 35 34 38 40
14 16 20 24 30 38 45 45 49 51 52 55 57 44 42 43 42 44 43 39 40 39 39 42 42 33 42 37 31 26 30 38 50 54 41 34 30 35 35 35 36 35 38 39
22 23 25 27 31 34 38 39 40 46 47 55 52 54 44 43 38 42 37 37 38 40 38 40 41 41 42 39 31 30 33 40 42 56 65 41 33 35 36 35 38 37 31 28
22 25 28 30 33 37 40 40 39 42 47 43 50 57 44 37 41 41 39 38 36 39 42 40 41 42 40 41 36 35 35 34 33 37 49 47 35 40 34 37 35 32 27 27
13 14 14 19 22 28 38 46 43 45 41 24 45 47 49 39 36 39 36 34 40 39 41 41 44 41 33 31 32 33 33 33 34 36 36 36 41 35 37 34 32 28 26 28
13 9 7 12 14 19 30 43 40 38 43 31 30 43 45 39 29 26 33 36 32 39 37 39 43 30 30 31 32 33 33 33 32 30 25 28 37 39 35 32 28 26 28 28
13 10 3 3 8 19 32 30 32 35 38 34 36 40 38 35 25 29 33 36 37 37 36 36 42 37 32 31 31 30 32 35 31 29 30 32 34 38 29 27 23 24 24 25
21 17 14 17 19 26 38 46 47 39 41 40 36 33 32 30 25 29 30 30 31 32 34 39 39 32 31 36 36 36 32 31 29 29 31 28 26 25 22 20 21 21 21 27
19 24 19 24 26 25 31 36 38 41 39 34 32 29 31 31 33 31 26 22 28 30 31 29 25 29 37 38 37 31 26 24 21 23 18 20 20 14 16 18 19 22 26 32
21 24 27 24 27 31 33 37 34 34 30 30 33 23 21 26 23 30 28 28 20 24 25 28 35 38 35 35 29 25 25 21 15 16 16 14 12 13 15 20 24 28 30 34
28 31 29 35 30 31 29 28 29 28 26 24 26 28 20 26 33 33 38 41 40 34 35 34 27 25 26 28 28 27 25 19 16 17 15 10 10 15 19 23 26 29 32 33
37 33 28 27 28 26 23 22 19 21 24 27 26 34 34 38 42 38 38 39 34 31 28 24 25 26 28 28 26 25 24 21 16 12 9 10 15 18 21 24 25 25 24 22
26 30 34 34 26 22 26 24 22 27 31 32 36 37 43 42 42 41 37 34 31 28 27 27 29 27 22 20 24 23 21 15 12 9 12 14 17 19 18 19 17 16 19 22
23 24 29 32 38 36 32 25 23 31 32 28 30 28 32 34 33 30 29 28 27 27 29 29 26 23 24 25 23 19 16 14 13 13 15 15 14 13 11 13 15 19 21 21
27 27 26 30 31 29 29 29 28 27 27 25 20 23 20 25 26 26 26 26 26 26 24 24 23 24 22 21 19 16 15 14 13 13 12 10 9 7 9 14 16 15 16 17
27 26 26 28 29 29 28 30 31 34 30 29 23 26 27 23 24 25 24 24 25 25 23 23 24 24 22 20 17 15 12 11 11 10 8 6 5 7 12 12 12 13 16 18
29 30 29 29 29 28 29 28 28 29 27 26 26 25 26 25 24 24 24 25 23 24 25 24 23 20 17 15 14 12 12 11 10 8 7 5 6 10 9 10 11 14 16 18
25 25 24 25 24 22 21 22 23 23 23 24 26 25 25 25 25 26 25 24 26 25 24 21 18 17 15 13 12 12 12 11 10 9 7 6 8 7 8 9 11 14 17 19
24 23 21 21 22 22 20 22 24 25 24 24 26 27 25 26 27 28 27 27 25 23 20 19 16 14 13 12 12 12 12 12 12 9 7 6 7 7 7 9 12 15 19 21
20 20 23 22 23 25 25 25 23 24 25 26 27 27 28 28 26 27 25 22 19 17 18 15 14 13 13 14 14 14 13 15 13 10 7 7 7 6 7 10 13 16 16 17
24 25 23 24 23 24 26 26 26 27 27 27 29 29 28 27 24 22 20 18 16 16 14 12 13 14 15 15 15 14 16 17 15 10 7 8 7 6 7 11 12 12 14 16